Observation data for Menard on 04/23/2019      Previous  Date  Next       Current Mesonet Observations  Soil Data  Daily Summary Page  Observations in Plain Language
KMD1 230500Z 16007KT 20/15 A3001 RMK A01 T01970152  RH  075%=      5-min Rain = 0
KMD1 230501Z 15011G16KT 20/15 A30 RMK A01 T01970153  RH  075%=      5-min Rain = 0
KMD1 230502Z 16010KT 20/15 A30 RMK A01 T01970152  RH  075%=      5-min Rain = 0
KMD1 230503Z 16009KT 20/15 A30 RMK A01 T01980152  RH  075%=      5-min Rain = 0
KMD1 230504Z 16009KT 20/15 A3001 RMK A01 T01970153  RH  075%=      5-min Rain = 0
KMD1 230505Z 16011KT 20/15 A3001 RMK A01 T01970153  RH  075%=      5-min Rain = 0
KMD1 230506Z 15009KT 20/15 A30 RMK A01 T01970153  RH  075%=      5-min Rain = 0
KMD1 230507Z 16010KT 20/15 A30 RMK A01 T01970153  RH  075%=      5-min Rain = 0
KMD1 230508Z 16009KT 20/15 A30 RMK A01 T01970152  RH  075%=      5-min Rain = 0
KMD1 230509Z 15012KT 20/15 A30 RMK A01 T01970153  RH  075%=      5-min Rain = 0
KMD1 230510Z 16010KT 20/15 A30 RMK A01 T01970152  RH  075%=      5-min Rain = 0
KMD1 230511Z 16011KT 20/15 A30 RMK A01 T01970151  RH  075%=      5-min Rain = 0
KMD1 230512Z 15009KT 20/15 A30 RMK A01 T01980152  RH  075%=      5-min Rain = 0
KMD1 230513Z 15007KT 20/15 A30 RMK A01 T01970153  RH  075%=      5-min Rain = 0
KMD1 230514Z 15010KT 20/15 A30 RMK A01 T01970153  RH  076%=      5-min Rain = 0
KMD1 230515Z 15011KT 20/15 A2999 RMK A01 T01970152  RH  076%=      5-min Rain = 0
KMD1 230516Z 15010KT 20/15 A2999 RMK A01 T01970152  RH  075%=      5-min Rain = 0
KMD1 230517Z 15009KT 20/15 A2999 RMK A01 T01970152  RH  075%=      5-min Rain = 0
KMD1 230518Z 14009KT 20/15 A2999 RMK A01 T01970153  RH  076%=      5-min Rain = 0
KMD1 230519Z 15013KT 20/15 A2999 RMK A01 T01960153  RH  076%=      5-min Rain = 0
KMD1 230520Z 14011KT 20/15 A2998 RMK A01 T01960152  RH  076%=      5-min Rain = 0
KMD1 230521Z 14011KT 20/15 A2998 RMK A01 T01960152  RH  076%=      5-min Rain = 0
KMD1 230522Z 14012KT 20/15 A2998 RMK A01 T01960152  RH  075%=      5-min Rain = 0
KMD1 230523Z 14010KT 20/15 A2998 RMK A01 T01960152  RH  076%=      5-min Rain = 0
KMD1 230524Z 14012KT 20/15 A2998 RMK A01 T01960152  RH  076%=      5-min Rain = 0
KMD1 230525Z 14013KT 20/15 A2998 RMK A01 T01960153  RH  076%=      5-min Rain = 0
KMD1 230526Z 13014KT 20/15 A2997 RMK A01 T01960152  RH  076%=      5-min Rain = 0
KMD1 230527Z 13015KT 20/15 A2997 RMK A01 T01960153  RH  076%=      5-min Rain = 0
KMD1 230528Z 15011KT 20/15 A2997 RMK A01 T01960152  RH  076%=      5-min Rain = 0
KMD1 230529Z 15014KT 20/15 A2998 RMK A01 T01960152  RH  076%=      5-min Rain = 0
KMD1 230530Z 15011KT 20/15 A2998 RMK A01 T01960152  RH  075%=      5-min Rain = 0
KMD1 230531Z 15009KT 20/15 A2998 RMK A01 T01960152  RH  076%=      5-min Rain = 0
KMD1 230532Z 16011KT 20/15 A2999 RMK A01 T01960153  RH  076%=      5-min Rain = 0
KMD1 230533Z 16007KT 20/15 A2999 RMK A01 T01960152  RH  076%=      5-min Rain = 0
KMD1 230534Z 15008KT 20/15 A2999 RMK A01 T01960153  RH  077%=      5-min Rain = 0
KMD1 230535Z 16008KT 20/15 A2999 RMK A01 T01950153  RH  077%=      5-min Rain = 0
KMD1 230536Z 15009KT 20/15 A2999 RMK A01 T01950152  RH  077%=      5-min Rain = 0
KMD1 230537Z 14009KT 20/15 A2999 RMK A01 T01950153  RH  077%=      5-min Rain = 0
KMD1 230538Z 15008KT 20/15 A2999 RMK A01 T01950152  RH  076%=      5-min Rain = 0
KMD1 230539Z 16007KT 20/15 A2999 RMK A01 T01950153  RH  077%=      5-min Rain = 0
KMD1 230540Z 16008G13KT 19/15 A2999 RMK A01 T01940153  RH  077%=      5-min Rain = 0
KMD1 230541Z 15009KT 19/15 A2999 RMK A01 T01940154  RH  078%=      5-min Rain = 0
KMD1 230542Z 18008KT 19/15 A2999 RMK A01 T01930152  RH  077%=      5-min Rain = 0
KMD1 230543Z 17007KT 19/15 A2999 RMK A01 T01940152  RH  077%=      5-min Rain = 0
KMD1 230544Z 17005KT 19/15 A30 RMK A01 T01940153  RH  077%=      5-min Rain = 0
KMD1 230545Z 18006KT 19/15 A30 RMK A01 T01940153  RH  077%=      5-min Rain = 0
KMD1 230546Z 16008KT 19/15 A30 RMK A01 T01940153  RH  077%=      5-min Rain = 0
KMD1 230547Z 16009KT 19/15 A2999 RMK A01 T01940152  RH  077%=      5-min Rain = 0
KMD1 230548Z 15008KT 19/15 A2999 RMK A01 T01940152  RH  077%=      5-min Rain = 0
KMD1 230549Z 17008KT 19/15 A2999 RMK A01 T01940153  RH  077%=      5-min Rain = 0
KMD1 230550Z 17009G15KT 19/15 A2999 RMK A01 T01940153  RH  077%=      5-min Rain = 0
KMD1 230551Z 15011G16KT 19/15 A2999 RMK A01 T01930153  RH  077%=      5-min Rain = 0
KMD1 230552Z 15009KT 19/15 A2999 RMK A01 T01930152  RH  077%=      5-min Rain = 0
KMD1 230553Z 16009KT 19/15 A2999 RMK A01 T01930152  RH  077%=      5-min Rain = 0
KMD1 230554Z 16011KT 19/15 A2999 RMK A01 T01930152  RH  077%=      5-min Rain = 0
KMD1 230555Z 17009KT 19/15 A2999 RMK A01 T01930152  RH  077%=      5-min Rain = 0
KMD1 230556Z 17009KT 19/15 A30 RMK A01 T01930152  RH  077%=      5-min Rain = 0
KMD1 230557Z 18008KT 19/15 A30 RMK A01 T01930153  RH  077%=      5-min Rain = 0
KMD1 230558Z 17008KT 19/15 A30 RMK A01 T01930153  RH  077%=      5-min Rain = 0
KMD1 230559Z 16009KT 19/15 A30 RMK A01 T01930153  RH  077%=      5-min Rain = 0
KMD1 230600Z 16008KT 19/15 A2999 RMK A01 T01920153  RH  078%=      5-min Rain = 0
KMD1 230601Z 16009KT 19/15 A2999 RMK A01 T01920152  RH  078%=      5-min Rain = 0
KMD1 230602Z 15010KT 19/15 A2999 RMK A01 T01930152  RH  077%=      5-min Rain = 0
KMD1 230603Z 15009KT 19/15 A2999 RMK A01 T01920152  RH  077%=      5-min Rain = 0
KMD1 230604Z 15013KT 19/15 A2999 RMK A01 T01920152  RH  077%=      5-min Rain = 0
KMD1 230605Z 14010KT 19/15 A2999 RMK A01 T01930152  RH  077%=      5-min Rain = 0
KMD1 230606Z 16008KT 19/15 A2999 RMK A01 T01930152  RH  077%=      5-min Rain = 0
KMD1 230607Z 16011KT 19/15 A2999 RMK A01 T01920153  RH  078%=      5-min Rain = 0
KMD1 230608Z 13009KT 19/15 A2999 RMK A01 T01920153  RH  078%=      5-min Rain = 0
KMD1 230609Z 14009KT 19/15 A2998 RMK A01 T01910153  RH  078%=      5-min Rain = 0
KMD1 230610Z 15013KT 19/15 A2998 RMK A01 T01900153  RH  079%=      5-min Rain = 0
KMD1 230611Z 14012KT 19/15 A2998 RMK A01 T01900152  RH  079%=      5-min Rain = 0
KMD1 230612Z 14014KT 19/15 A2998 RMK A01 T01900151  RH  078%=      5-min Rain = 0
KMD1 230613Z 14012KT 19/15 A2998 RMK A01 T01910152  RH  078%=      5-min Rain = 0
KMD1 230614Z 15012KT 19/15 A2998 RMK A01 T01910152  RH  078%=      5-min Rain = 0
KMD1 230615Z 15010KT 19/15 A2998 RMK A01 T01910152  RH  078%=      5-min Rain = 0
KMD1 230616Z 15009KT 19/15 A2998 RMK A01 T01900152  RH  079%=      5-min Rain = 0
KMD1 230617Z 15008KT 19/15 A2998 RMK A01 T01900152  RH  078%=      5-min Rain = 0
KMD1 230618Z 15008KT 19/15 A2999 RMK A01 T01900152  RH  078%=      5-min Rain = 0
KMD1 230619Z 17007KT 19/15 A2999 RMK A01 T01910152  RH  078%=      5-min Rain = 0
KMD1 230620Z 16007KT 19/15 A2999 RMK A01 T01900153  RH  079%=      5-min Rain = 0
KMD1 230621Z 17009KT 19/15 A2999 RMK A01 T01900152  RH  079%=      5-min Rain = 0
KMD1 230622Z 18008KT 19/15 A2999 RMK A01 T01900152  RH  079%=      5-min Rain = 0
KMD1 230623Z 18006KT 19/15 A30 RMK A01 T01900152  RH  079%=      5-min Rain = 0
KMD1 230624Z 16005KT 19/15 A30 RMK A01 T01900153  RH  079%=      5-min Rain = 0
KMD1 230625Z 16007KT 19/15 A30 RMK A01 T01900153  RH  079%=      5-min Rain = 0
KMD1 230626Z 17007KT 19/15 A30 RMK A01 T01900153  RH  079%=      5-min Rain = 0
KMD1 230627Z 17005KT 19/15 A30 RMK A01 T01900153  RH  079%=      5-min Rain = 0
KMD1 230628Z 17007KT 19/15 A30 RMK A01 T01900154  RH  079%=      5-min Rain = 0
KMD1 230629Z 17008KT 19/15 A30 RMK A01 T01890153  RH  079%=      5-min Rain = 0
KMD1 230630Z 16008KT 19/15 A30 RMK A01 T01900153  RH  079%=      5-min Rain = 0
KMD1 230631Z 16011KT 19/15 A30 RMK A01 T01900153  RH  079%=      5-min Rain = 0
KMD1 230632Z 16011KT 19/15 A30 RMK A01 T01900153  RH  079%=      5-min Rain = 0
KMD1 230633Z 16011KT 19/15 A2999 RMK A01 T01900153  RH  079%=      5-min Rain = 0
KMD1 230634Z 15012KT 19/15 A2999 RMK A01 T01900153  RH  079%=      5-min Rain = 0
KMD1 230635Z 15012KT 19/15 A2999 RMK A01 T01900153  RH  079%=      5-min Rain = 0
KMD1 230636Z 15011KT 19/15 A2999 RMK A01 T01900153  RH  079%=      5-min Rain = 0
KMD1 230637Z 15011KT 19/15 A2999 RMK A01 T01900153  RH  079%=      5-min Rain = 0
KMD1 230638Z 16011KT 19/15 A2999 RMK A01 T01900153  RH  079%=      5-min Rain = 0
KMD1 230639Z 15010KT 19/15 A2999 RMK A01 T01900153  RH  079%=      5-min Rain = 0
KMD1 230640Z 16010KT 19/15 A2999 RMK A01 T01890153  RH  080%=      5-min Rain = 0
KMD1 230641Z 15009G15KT 19/15 A2999 RMK A01 T01890154  RH  080%=      5-min Rain = 0
KMD1 230642Z 15011KT 19/15 A2998 RMK A01 T01890153  RH  080%=      5-min Rain = 0
KMD1 230643Z 14010KT 19/15 A2998 RMK A01 T01890153  RH  080%=      5-min Rain = 0
KMD1 230644Z 15013KT 19/15 A2998 RMK A01 T01890154  RH  080%=      5-min Rain = 0
KMD1 230645Z 14010KT 19/15 A2998 RMK A01 T01890152  RH  079%=      5-min Rain = 0
KMD1 230646Z 14012KT 19/15 A2998 RMK A01 T01890153  RH  080%=      5-min Rain = 0
KMD1 230647Z 14011KT 19/15 A2998 RMK A01 T01890153  RH  080%=      5-min Rain = 0
KMD1 230648Z 14009KT 19/15 A2998 RMK A01 T01890153  RH  080%=      5-min Rain = 0
KMD1 230649Z 14010KT 19/15 A2998 RMK A01 T01890154  RH  080%=      5-min Rain = 0
KMD1 230650Z 14012KT 19/15 A2998 RMK A01 T01880153  RH  080%=      5-min Rain = 0
KMD1 230651Z 15013KT 19/15 A2998 RMK A01 T01880153  RH  080%=      5-min Rain = 0
KMD1 230652Z 15012KT 19/15 A2998 RMK A01 T01880153  RH  080%=      5-min Rain = 0
KMD1 230653Z 15009KT 19/15 A2998 RMK A01 T01880153  RH  080%=      5-min Rain = 0
KMD1 230654Z 15012KT 19/15 A2998 RMK A01 T01880153  RH  080%=      5-min Rain = 0
KMD1 230655Z 15012KT 19/15 A2998 RMK A01 T01880153  RH  080%=      5-min Rain = 0
KMD1 230656Z 15009KT 19/15 A2998 RMK A01 T01880153  RH  080%=      5-min Rain = 0
KMD1 230657Z 14010KT 19/15 A2997 RMK A01 T01880153  RH  080%=      5-min Rain = 0
KMD1 230658Z 14007KT 19/15 A2997 RMK A01 T01880153  RH  080%=      5-min Rain = 0
KMD1 230659Z 14008KT 19/15 A2997 RMK A01 T01880154  RH  081%=      5-min Rain = 0
KMD1 230700Z 15006KT 19/16 A2997 RMK A01 T01880155  RH  081%=      5-min Rain = 0
KMD1 230701Z 15007KT 19/15 A2997 RMK A01 T01880154  RH  081%=      5-min Rain = 0
KMD1 230702Z 16008KT 19/15 A2997 RMK A01 T01870154  RH  081%=      5-min Rain = 0
KMD1 230703Z 15008KT 19/15 A2997 RMK A01 T01870154  RH  081%=      5-min Rain = 0
KMD1 230704Z 15006KT 19/15 A2997 RMK A01 T01870154  RH  081%=      5-min Rain = 0
KMD1 230705Z 15007KT 19/15 A2997 RMK A01 T01870154  RH  081%=      5-min Rain = 0
KMD1 230706Z 15007KT 19/15 A2997 RMK A01 T01870154  RH  081%=      5-min Rain = 0
KMD1 230707Z 15009KT 19/16 A2996 RMK A01 T01880155  RH  081%=      5-min Rain = 0
KMD1 230708Z 16009KT 19/15 A2996 RMK A01 T01870154  RH  081%=      5-min Rain = 0
KMD1 230709Z 14007KT 19/15 A2997 RMK A01 T01880154  RH  081%=      5-min Rain = 0
KMD1 230710Z 15005KT 19/15 A2997 RMK A01 T01880154  RH  081%=      5-min Rain = 0
KMD1 230711Z 15006KT 19/15 A2997 RMK A01 T01880154  RH  081%=      5-min Rain = 0
KMD1 230712Z 15004KT 19/16 A2997 RMK A01 T01880155  RH  081%=      5-min Rain = 0
KMD1 230713Z 15006KT 19/16 A2997 RMK A01 T01880155  RH  081%=      5-min Rain = 0
KMD1 230714Z 16006KT 19/16 A2997 RMK A01 T01870155  RH  081%=      5-min Rain = 0
KMD1 230715Z 15005KT 19/16 A2997 RMK A01 T01870155  RH  081%=      5-min Rain = 0
KMD1 230716Z 16006KT 19/16 A2997 RMK A01 T01870155  RH  082%=      5-min Rain = 0
KMD1 230717Z 16008KT 19/16 A2997 RMK A01 T01860155  RH  082%=      5-min Rain = 0
KMD1 230718Z 16009KT 19/16 A2997 RMK A01 T01860155  RH  082%=      5-min Rain = 0
KMD1 230719Z 15010KT 19/16 A2997 RMK A01 T01860155  RH  082%=      5-min Rain = 0
KMD1 230720Z 15012KT 19/16 A2997 RMK A01 T01860155  RH  082%=      5-min Rain = 0
KMD1 230721Z 15011KT 19/15 A2997 RMK A01 T01870154  RH  081%=      5-min Rain = 0
KMD1 230722Z 15010KT 19/16 A2997 RMK A01 T01870155  RH  082%=      5-min Rain = 0
KMD1 230723Z 15009KT 19/16 A2997 RMK A01 T01870155  RH  082%=      5-min Rain = 0
KMD1 230724Z 15010KT 19/16 A2997 RMK A01 T01870155  RH  082%=      5-min Rain = 0
KMD1 230725Z 15011KT 19/16 A2997 RMK A01 T01870155  RH  082%=      5-min Rain = 0
KMD1 230726Z 15011KT 19/16 A2997 RMK A01 T01870155  RH  082%=      5-min Rain = 0
KMD1 230727Z 15011KT 19/16 A2998 RMK A01 T01870155  RH  081%=      5-min Rain = 0
KMD1 230728Z 16010KT 19/16 A2998 RMK A01 T01870155  RH  081%=      5-min Rain = 0
KMD1 230729Z 17011KT 19/16 A2999 RMK A01 T01870155  RH  081%=      5-min Rain = 0
KMD1 230730Z 17009KT 19/16 A2999 RMK A01 T01870155  RH  081%=      5-min Rain = 0
KMD1 230731Z 16008KT 19/16 A2999 RMK A01 T01870155  RH  081%=      5-min Rain = 0
KMD1 230732Z 16009KT 19/16 A2999 RMK A01 T01870155  RH  082%=      5-min Rain = 0
KMD1 230733Z 15007KT 19/16 A2998 RMK A01 T01870155  RH  082%=      5-min Rain = 0
KMD1 230734Z 15006KT 19/16 A2998 RMK A01 T01870156  RH  082%=      5-min Rain = 0
KMD1 230735Z 15007KT 19/16 A2998 RMK A01 T01870156  RH  082%=      5-min Rain = 0
KMD1 230736Z 14007KT 19/16 A2998 RMK A01 T01870156  RH  082%=      5-min Rain = 0
KMD1 230737Z 15007KT 19/16 A2998 RMK A01 T01870156  RH  082%=      5-min Rain = 0
KMD1 230738Z 16007KT 19/16 A2998 RMK A01 T01870156  RH  082%=      5-min Rain = 0
KMD1 230739Z 15006KT 19/16 A2998 RMK A01 T01870156  RH  082%=      5-min Rain = 0
KMD1 230740Z 17008KT 19/16 A2998 RMK A01 T01870156  RH  082%=      5-min Rain = 0
KMD1 230741Z 16009KT 19/16 A2998 RMK A01 T01870156  RH  082%=      5-min Rain = 0
KMD1 230742Z 16009KT 19/16 A2998 RMK A01 T01870156  RH  082%=      5-min Rain = 0
KMD1 230743Z 15006KT 19/16 A2998 RMK A01 T01870156  RH  082%=      5-min Rain = 0
KMD1 230744Z 15007KT 19/16 A2998 RMK A01 T01870156  RH  082%=      5-min Rain = 0
KMD1 230745Z 15007KT 19/16 A2998 RMK A01 T01870156  RH  082%=      5-min Rain = 0
KMD1 230746Z 14008KT 19/16 A2998 RMK A01 T01870156  RH  082%=      5-min Rain = 0
KMD1 230747Z 14006KT 19/16 A2998 RMK A01 T01870156  RH  082%=      5-min Rain = 0
KMD1 230748Z 14008KT 19/16 A2998 RMK A01 T01870156  RH  082%=      5-min Rain = 0
KMD1 230749Z 13007KT 19/16 A2998 RMK A01 T01870156  RH  082%=      5-min Rain = 0
KMD1 230750Z 14009KT 19/16 A2998 RMK A01 T01870156  RH  082%=      5-min Rain = 0
KMD1 230751Z 14009KT 19/16 A2997 RMK A01 T01870156  RH  082%=      5-min Rain = 0
KMD1 230752Z 14007KT 19/16 A2997 RMK A01 T01870156  RH  082%=      5-min Rain = 0
KMD1 230753Z 14007KT 19/16 A2997 RMK A01 T01870156  RH  082%=      5-min Rain = 0
KMD1 230754Z 13008KT 19/16 A2997 RMK A01 T01870156  RH  082%=      5-min Rain = 0
KMD1 230755Z 12007KT 19/16 A2996 RMK A01 T01870156  RH  082%=      5-min Rain = 0
KMD1 230756Z 12008KT 19/16 A2996 RMK A01 T01870157  RH  083%=      5-min Rain = 0
KMD1 230757Z 13009KT 19/16 A2996 RMK A01 T01860157  RH  083%=      5-min Rain = 0
KMD1 230758Z 14008KT 19/16 A2996 RMK A01 T01860157  RH  083%=      5-min Rain = 0
KMD1 230759Z 15007KT 19/16 A2997 RMK A01 T01860157  RH  083%=      5-min Rain = 0
KMD1 230800Z 15006KT 19/16 A2997 RMK A01 T01870158  RH  083%=      5-min Rain = 0
KMD1 230801Z 15006KT 19/16 A2997 RMK A01 T01870157  RH  083%=      5-min Rain = 0
KMD1 230802Z 15007KT 19/16 A2997 RMK A01 T01860158  RH  083%=      5-min Rain = 0
KMD1 230803Z 15006KT 19/16 A2997 RMK A01 T01860158  RH  083%=      5-min Rain = 0
KMD1 230804Z 14006KT 19/16 A2997 RMK A01 T01860157  RH  083%=      5-min Rain = 0
KMD1 230805Z 14006KT 19/16 A2996 RMK A01 T01860157  RH  083%=      5-min Rain = 0
KMD1 230806Z 14006KT 19/16 A2996 RMK A01 T01870158  RH  083%=      5-min Rain = 0
KMD1 230807Z 15008KT 19/16 A2996 RMK A01 T01860158  RH  083%=      5-min Rain = 0
KMD1 230808Z 14006KT 19/16 A2996 RMK A01 T01860157  RH  083%=      5-min Rain = 0
KMD1 230809Z 14007KT 19/16 A2996 RMK A01 T01860157  RH  083%=      5-min Rain = 0
KMD1 230810Z 14007KT 19/16 A2996 RMK A01 T01870158  RH  083%=      5-min Rain = 0
KMD1 230811Z 15008KT 19/16 A2996 RMK A01 T01860158  RH  084%=      5-min Rain = 0
KMD1 230812Z 14006KT 19/16 A2995 RMK A01 T01860158  RH  084%=      5-min Rain = 0
KMD1 230813Z 13007KT 19/16 A2995 RMK A01 T01860158  RH  084%=      5-min Rain = 0
KMD1 230814Z 13010KT 19/16 A2995 RMK A01 T01860158  RH  084%=      5-min Rain = 0
KMD1 230815Z 13008KT 19/16 A2995 RMK A01 T01860158  RH  084%=      5-min Rain = 0
KMD1 230816Z 15009KT 19/16 A2995 RMK A01 T01860158  RH  084%=      5-min Rain = 0
KMD1 230817Z 15007KT 19/16 A2995 RMK A01 T01860158  RH  083%=      5-min Rain = 0
KMD1 230818Z 15007KT 19/16 A2995 RMK A01 T01870158  RH  084%=      5-min Rain = 0
KMD1 230819Z 15007KT 19/16 A2995 RMK A01 T01870159  RH  084%=      5-min Rain = 0
KMD1 230820Z 15010KT 19/16 A2995 RMK A01 T01860159  RH  084%=      5-min Rain = 0
KMD1 230821Z 15009KT 19/16 A2995 RMK A01 T01860159  RH  084%=      5-min Rain = 0
KMD1 230822Z 15007KT 19/16 A2995 RMK A01 T01860158  RH  084%=      5-min Rain = 0
KMD1 230823Z 15009KT 19/16 A2995 RMK A01 T01870159  RH  084%=      5-min Rain = 0
KMD1 230824Z 16008KT 19/16 A2995 RMK A01 T01870159  RH  084%=      5-min Rain = 0
KMD1 230825Z 16010KT 19/16 A2996 RMK A01 T01870159  RH  084%=      5-min Rain = 0
KMD1 230826Z 15010KT 19/16 A2996 RMK A01 T01870159  RH  084%=      5-min Rain = 0
KMD1 230827Z 15011KT 19/16 A2995 RMK A01 T01870159  RH  084%=      5-min Rain = 0
KMD1 230828Z 15008KT 19/16 A2995 RMK A01 T01870159  RH  084%=      5-min Rain = 0
KMD1 230829Z 15008KT 19/16 A2996 RMK A01 T01870159  RH  084%=      5-min Rain = 0
KMD1 230830Z 15008KT 19/16 A2996 RMK A01 T01870159  RH  084%=      5-min Rain = 0
KMD1 230831Z 15010KT 19/16 A2996 RMK A01 T01870159  RH  084%=      5-min Rain = 0
KMD1 230832Z 15011KT 19/16 A2995 RMK A01 T01870159  RH  084%=      5-min Rain = 0
KMD1 230833Z 15009KT 19/16 A2995 RMK A01 T01870159  RH  084%=      5-min Rain = 0
KMD1 230834Z 15011KT 19/16 A2996 RMK A01 T01870159  RH  084%=      5-min Rain = 0
KMD1 230835Z 17010KT 19/16 A2995 RMK A01 T01870159  RH  084%=      5-min Rain = 0
KMD1 230836Z 16009KT 19/16 A2995 RMK A01 T01870160  RH  084%=      5-min Rain = 0
KMD1 230837Z 16009KT 19/16 A2995 RMK A01 T01870160  RH  084%=      5-min Rain = 0
KMD1 230838Z 16009KT 19/16 A2995 RMK A01 T01870160  RH  084%=      5-min Rain = 0
KMD1 230839Z 15008KT 19/16 A2995 RMK A01 T01870160  RH  084%=      5-min Rain = 0
KMD1 230840Z 14007KT 19/16 A2995 RMK A01 T01880160  RH  084%=      5-min Rain = 0
KMD1 230841Z 14008KT 19/16 A2995 RMK A01 T01870160  RH  084%=      5-min Rain = 0
KMD1 230842Z 16008KT 19/16 A2995 RMK A01 T01870160  RH  084%=      5-min Rain = 0
KMD1 230843Z 14007KT 19/16 A2995 RMK A01 T01870160  RH  084%=      5-min Rain = 0
KMD1 230844Z 13008KT 19/16 A2995 RMK A01 T01870160  RH  084%=      5-min Rain = 0
KMD1 230845Z 15007KT 19/16 A2995 RMK A01 T01870160  RH  084%=      5-min Rain = 0
KMD1 230846Z 15007KT 19/16 A2995 RMK A01 T01870160  RH  084%=      5-min Rain = 0
KMD1 230847Z 15008G14KT 19/16 A2995 RMK A01 T01870160  RH  084%=      5-min Rain = 0
KMD1 230848Z 15009KT 19/16 A2995 RMK A01 T01870160  RH  084%=      5-min Rain = 0
KMD1 230849Z 15009KT 19/16 A2995 RMK A01 T01870160  RH  084%=      5-min Rain = 0
KMD1 230850Z 14008KT 19/16 A2995 RMK A01 T01870159  RH  084%=      5-min Rain = 0
KMD1 230851Z 13008KT 19/16 A2995 RMK A01 T01870160  RH  084%=      5-min Rain = 0
KMD1 230852Z 13009KT 19/16 A2995 RMK A01 T01870160  RH  084%=      5-min Rain = 0
KMD1 230853Z 14007KT 19/16 A2995 RMK A01 T01870160  RH  084%=      5-min Rain = 0
KMD1 230854Z 14007KT 19/16 A2995 RMK A01 T01870160  RH  084%=      5-min Rain = 0
KMD1 230855Z 13007KT 19/16 A2995 RMK A01 T01870160  RH  084%=      5-min Rain = 0
KMD1 230856Z 13009KT 19/16 A2995 RMK A01 T01870160  RH  084%=      5-min Rain = 0
KMD1 230857Z 14007KT 19/16 A2995 RMK A01 T01860160  RH  084%=      5-min Rain = 0
KMD1 230858Z 13006KT 19/16 A2995 RMK A01 T01860160  RH  085%=      5-min Rain = 0
KMD1 230859Z 14006KT 19/16 A2995 RMK A01 T01860161  RH  085%=      5-min Rain = 0
KMD1 230900Z 14009KT 19/16 A2995 RMK A01 T01860160  RH  085%=      5-min Rain = 0
KMD1 230901Z 14009KT 19/16 A2995 RMK A01 T01860160  RH  085%=      5-min Rain = 0
KMD1 230902Z 14008KT 19/16 A2995 RMK A01 T01860159  RH  085%=      5-min Rain = 0
KMD1 230903Z 14008KT 19/16 A2995 RMK A01 T01860160  RH  085%=      5-min Rain = 0
KMD1 230904Z 14008KT 19/16 A2995 RMK A01 T01860160  RH  085%=      5-min Rain = 0
KMD1 230905Z 14010KT 19/16 A2995 RMK A01 T01860160  RH  085%=      5-min Rain = 0
KMD1 230906Z 14009KT 19/16 A2995 RMK A01 T01860160  RH  084%=      5-min Rain = 0
KMD1 230907Z 14009KT 19/16 A2995 RMK A01 T01860160  RH  085%=      5-min Rain = 0
KMD1 230908Z 15007KT 19/16 A2995 RMK A01 T01860160  RH  085%=      5-min Rain = 0
KMD1 230909Z 13007KT 19/16 A2995 RMK A01 T01860160  RH  085%=      5-min Rain = 0
KMD1 230910Z 14007KT 19/16 A2995 RMK A01 T01860161  RH  085%=      5-min Rain = 0
KMD1 230911Z 14006KT 19/16 A2995 RMK A01 T01860160  RH  085%=      5-min Rain = 0
KMD1 230912Z 15007KT 19/16 A2995 RMK A01 T01860160  RH  085%=      5-min Rain = 0
KMD1 230913Z 15008KT 19/16 A2995 RMK A01 T01860160  RH  085%=      5-min Rain = 0
KMD1 230914Z 14007KT 19/16 A2995 RMK A01 T01860160  RH  085%=      5-min Rain = 0
KMD1 230915Z 14006KT 19/16 A2995 RMK A01 T01860160  RH  085%=      5-min Rain = 0
KMD1 230916Z 14007KT 19/16 A2995 RMK A01 T01860161  RH  085%=      5-min Rain = 0
KMD1 230917Z 15007KT 19/16 A2995 RMK A01 T01860161  RH  085%=      5-min Rain = 0
KMD1 230918Z 15007KT 19/16 A2995 RMK A01 T01860161  RH  085%=      5-min Rain = 0
KMD1 230919Z 15007KT 19/16 A2995 RMK A01 T01850161  RH  085%=      5-min Rain = 0
KMD1 230920Z 15006KT 19/16 A2995 RMK A01 T01860161  RH  086%=      5-min Rain = 0
KMD1 230921Z 15006KT 19/16 A2995 RMK A01 T01850161  RH  086%=      5-min Rain = 0
KMD1 230922Z 15007KT 19/16 A2995 RMK A01 T01850161  RH  086%=      5-min Rain = 0
KMD1 230923Z 15007KT 19/16 A2995 RMK A01 T01850161  RH  086%=      5-min Rain = 0
KMD1 230924Z 15005KT 19/16 A2995 RMK A01 T01850160  RH  085%=      5-min Rain = 0
KMD1 230925Z 15005KT 19/16 A2995 RMK A01 T01850160  RH  085%=      5-min Rain = 0
KMD1 230926Z 15005KT 19/16 A2995 RMK A01 T01850160  RH  085%=      5-min Rain = 0
KMD1 230927Z 15004KT 19/16 A2995 RMK A01 T01850161  RH  086%=      5-min Rain = 0
KMD1 230928Z 16004KT 19/16 A2995 RMK A01 T01850161  RH  086%=      5-min Rain = 0
KMD1 230929Z 15005KT 19/16 A2995 RMK A01 T01850161  RH  086%=      5-min Rain = 0
KMD1 230930Z 15006KT 19/16 A2995 RMK A01 T01850162  RH  086%=      5-min Rain = 0
KMD1 230931Z 15007KT 19/16 A2995 RMK A01 T01850161  RH  086%=      5-min Rain = 0
KMD1 230932Z 16007KT 19/16 A2995 RMK A01 T01850161  RH  086%=      5-min Rain = 0
KMD1 230933Z 17008KT 19/16 A2995 RMK A01 T01850161  RH  086%=      5-min Rain = 0
KMD1 230934Z 15007KT 19/16 A2995 RMK A01 T01850160  RH  086%=      5-min Rain = 0
KMD1 230935Z 17006KT 19/16 A2995 RMK A01 T01850160  RH  086%=      5-min Rain = 0
KMD1 230936Z 15007KT 19/16 A2995 RMK A01 T01850161  RH  086%=      5-min Rain = 0
KMD1 230937Z 16006KT 19/16 A2995 RMK A01 T01850161  RH  086%=      5-min Rain = 0
KMD1 230938Z 16006KT 19/16 A2995 RMK A01 T01850161  RH  086%=      5-min Rain = 0
KMD1 230939Z 15005KT 19/16 A2995 RMK A01 T01850161  RH  086%=      5-min Rain = 0
KMD1 230940Z 15007KT 19/16 A2995 RMK A01 T01850161  RH  086%=      5-min Rain = 0
KMD1 230941Z 15007KT 19/16 A2995 RMK A01 T01850161  RH  086%=      5-min Rain = 0
KMD1 230942Z 15007KT 19/16 A2996 RMK A01 T01850161  RH  086%=      5-min Rain = 0
KMD1 230943Z 16006KT 19/16 A2996 RMK A01 T01850161  RH  086%=      5-min Rain = 0
KMD1 230944Z 16006KT 19/16 A2996 RMK A01 T01850161  RH  086%=      5-min Rain = 0
KMD1 230945Z 17006KT 19/16 A2996 RMK A01 T01850161  RH  086%=      5-min Rain = 0
KMD1 230946Z 16005KT 19/16 A2996 RMK A01 T01850161  RH  086%=      5-min Rain = 0
KMD1 230947Z 15007KT 19/16 A2996 RMK A01 T01850162  RH  086%=      5-min Rain = 0
KMD1 230948Z 16008KT 19/16 A2996 RMK A01 T01850161  RH  086%=      5-min Rain = 0
KMD1 230949Z 16007KT 19/16 A2996 RMK A01 T01850161  RH  086%=      5-min Rain = 0
KMD1 230950Z 18007KT 19/16 A2996 RMK A01 T01850161  RH  086%=      5-min Rain = 0
KMD1 230951Z 16006KT 19/16 A2996 RMK A01 T01850162  RH  086%=      5-min Rain = 0
KMD1 230952Z 15007KT 19/16 A2996 RMK A01 T01850162  RH  087%=      5-min Rain = 0
KMD1 230953Z 15007KT 18/16 A2996 RMK A01 T01840163  RH  087%=      5-min Rain = 0
KMD1 230954Z 16006KT 18/16 A2996 RMK A01 T01840163  RH  087%=      5-min Rain = 0
KMD1 230955Z 16006KT 18/16 A2996 RMK A01 T01840163  RH  087%=      5-min Rain = 0
KMD1 230956Z 17006KT 18/16 A2996 RMK A01 T01840164  RH  088%=      5-min Rain = 0
KMD1 230957Z 17007KT 18/16 A2996 RMK A01 T01830164  RH  088%=      5-min Rain = 0
KMD1 230958Z 16007KT 18/16 A2995 RMK A01 T01830164  RH  089%=      5-min Rain = 0
KMD1 230959Z 16007KT 18/16 A2995 RMK A01 T01830164  RH  089%=      5-min Rain = 0
KMD1 231000Z 16007KT 18/17 A2995 RMK A01 T01830165  RH  089%=      5-min Rain = 0
KMD1 231001Z 14007KT 18/17 A2995 RMK A01 T01820165  RH  090%=      5-min Rain = 0
KMD1 231002Z 15007KT 18/17 A2995 RMK A01 T01820165  RH  090%=      5-min Rain = 0
KMD1 231003Z 15006KT 18/17 A2995 RMK A01 T01810165  RH  090%=      5-min Rain = 0
KMD1 231004Z 15005KT 18/17 A2995 RMK A01 T01810166  RH  091%=      5-min Rain = 0
KMD1 231005Z 15006KT 18/17 A2995 RMK A01 T01810166  RH  091%=      5-min Rain = 0
KMD1 231006Z 14006KT 18/17 A2995 RMK A01 T01800165  RH  091%=      5-min Rain = 0
KMD1 231007Z 16005KT 18/17 A2995 RMK A01 T01800165  RH  091%=      5-min Rain = 0
KMD1 231008Z 14005KT 18/17 A2995 RMK A01 T01800166  RH  091%=      5-min Rain = 0
KMD1 231009Z 15005KT 18/17 A2996 RMK A01 T01800166  RH  092%=      5-min Rain = 0
KMD1 231010Z 14004KT 18/17 A2996 RMK A01 T01790166  RH  092%=      5-min Rain = 0
KMD1 231011Z 13005KT 18/17 A2996 RMK A01 T01790166  RH  092%=      5-min Rain = 0
KMD1 231012Z 14005KT 18/17 A2996 RMK A01 T01790166  RH  092%=      5-min Rain = 0
KMD1 231013Z 13004KT 18/17 A2996 RMK A01 T01790166  RH  092%=      5-min Rain = 0
KMD1 231014Z 12005KT 18/17 A2996 RMK A01 T01780166  RH  093%=      5-min Rain = 0
KMD1 231015Z 13006KT 18/17 A2995 RMK A01 T01780166  RH  093%=      5-min Rain = 0
KMD1 231016Z 13005KT 18/17 A2995 RMK A01 T01780166  RH  093%=      5-min Rain = 0
KMD1 231017Z 11004KT 18/17 A2995 RMK A01 T01770166  RH  093%=      5-min Rain = 0
KMD1 231018Z 12005KT 18/17 A2995 RMK A01 T01770167  RH  094%=      5-min Rain = 0
KMD1 231019Z 11005KT 18/17 A2995 RMK A01 T01770167  RH  094%=      5-min Rain = 0
KMD1 231020Z 12005KT 18/17 A2995 RMK A01 T01770167  RH  094%=      5-min Rain = 0
KMD1 231021Z 11005KT 18/17 A2995 RMK A01 T01760167  RH  094%=      5-min Rain = 0
KMD1 231022Z 11006KT 18/17 A2995 RMK A01 T01760167  RH  095%=      5-min Rain = 0
KMD1 231023Z 11005KT 18/17 A2995 RMK A01 T01760168  RH  095%=      5-min Rain = 0
KMD1 231024Z 11006KT 18/17 A2995 RMK A01 T01760168  RH  095%=      5-min Rain = 0
KMD1 231025Z 12006KT 18/17 A2995 RMK A01 T01750168  RH  095%=      5-min Rain = 0
KMD1 231026Z 12005KT 18/17 A2995 RMK A01 T01750168  RH  095%=      5-min Rain = 0
KMD1 231027Z 11005KT 18/17 A2995 RMK A01 T01750168  RH  096%=      5-min Rain = 0
KMD1 231028Z 12006KT 18/17 A2995 RMK A01 T01750168  RH  096%=      5-min Rain = 0
KMD1 231029Z 12006KT 18/17 A2995 RMK A01 T01750168  RH  096%=      5-min Rain = 0
KMD1 231030Z 12005KT 18/17 A2995 RMK A01 T01750168  RH  096%=      5-min Rain = 0
KMD1 231031Z 11005KT 17/17 A2995 RMK A01 T01740168  RH  096%=      5-min Rain = 0
KMD1 231032Z 11005KT 17/17 A2995 RMK A01 T01740169  RH  096%=      5-min Rain = 0
KMD1 231033Z 11005KT 17/17 A2995 RMK A01 T01740169  RH  096%=      5-min Rain = 0
KMD1 231034Z 11005KT 17/17 A2995 RMK A01 T01740169  RH  097%=      5-min Rain = 0
KMD1 231035Z 10004KT 17/17 A2995 RMK A01 T01740169  RH  097%=      5-min Rain = 0
KMD1 231036Z 10005KT 17/17 A2995 RMK A01 T01740169  RH  097%=      5-min Rain = 0
KMD1 231037Z 10004KT 17/17 A2995 RMK A01 T01730169  RH  097%=      5-min Rain = 0
KMD1 231038Z 10004KT 17/17 A2995 RMK A01 T01740169  RH  097%=      5-min Rain = 0
KMD1 231039Z 10004KT 17/17 A2995 RMK A01 T01740169  RH  097%=      5-min Rain = 0
KMD1 231040Z 10005KT 17/17 A2995 RMK A01 T01740169  RH  097%=      5-min Rain = 0
KMD1 231041Z 09005KT 17/17 A2995 RMK A01 T01730169  RH  097%=      5-min Rain = 0
KMD1 231042Z 09005KT 17/17 A2995 RMK A01 T01730169  RH  097%=      5-min Rain = 0
KMD1 231043Z 08005KT 17/17 A2995 RMK A01 T01730169  RH  097%=      5-min Rain = 0
KMD1 231044Z 09004KT 17/17 A2995 RMK A01 T01730169  RH  098%=      5-min Rain = 0
KMD1 231045Z 08004KT 17/17 A2995 RMK A01 T01730169  RH  098%=      5-min Rain = 0
KMD1 231046Z 08004KT 17/17 A2995 RMK A01 T01730169  RH  098%=      5-min Rain = 0
KMD1 231047Z 08004KT 17/17 A2995 RMK A01 T01730170  RH  098%=      5-min Rain = 0
KMD1 231048Z 08004KT 17/17 A2995 RMK A01 T01730169  RH  098%=      5-min Rain = 0
KMD1 231049Z 08004KT 17/17 A2995 RMK A01 T01720169  RH  098%=      5-min Rain = 0
KMD1 231050Z 09004KT 17/17 A2995 RMK A01 T01720169  RH  098%=      5-min Rain = 0
KMD1 231051Z 08005KT 17/17 A2995 RMK A01 T01720169  RH  098%=      5-min Rain = 0
KMD1 231052Z 09004KT 17/17 A2995 RMK A01 T01720169  RH  098%=      5-min Rain = 0
KMD1 231053Z 09005KT 17/17 A2995 RMK A01 T01720169  RH  098%=      5-min Rain = 0
KMD1 231054Z 09004KT 17/17 A2995 RMK A01 T01720169  RH  098%=      5-min Rain = 0
KMD1 231055Z 09004KT 17/17 A2995 RMK A01 T01720169  RH  098%=      5-min Rain = 0
KMD1 231056Z 09004KT 17/17 A2995 RMK A01 T01720169  RH  098%=      5-min Rain = 0
KMD1 231057Z 09004KT 17/17 A2996 RMK A01 T01720169  RH  098%=      5-min Rain = 0
KMD1 231058Z 10005KT 17/17 A2996 RMK A01 T01720169  RH  099%=      5-min Rain = 0
KMD1 231059Z 10005KT 17/17 A2996 RMK A01 T01710169  RH  099%=      5-min Rain = 0
KMD1 231100Z 10004KT 17/17 A2996 RMK A01 T01710169  RH  099%=      5-min Rain = 0
KMD1 231101Z 09004KT 17/17 A2996 RMK A01 T01720169  RH  099%=      5-min Rain = 0
KMD1 231102Z 09005KT 17/17 A2996 RMK A01 T01710170  RH  099%=      5-min Rain = 0
KMD1 231103Z 08004KT 17/17 A2995 RMK A01 T01710169  RH  099%=      5-min Rain = 0
KMD1 231104Z 08005KT 17/17 A2995 RMK A01 T01710170  RH  099%=      5-min Rain = 0
KMD1 231105Z 08005KT 17/17 A2995 RMK A01 T01710170  RH  099%=      5-min Rain = 0
KMD1 231106Z 08005KT 17/17 A2995 RMK A01 T01710170  RH  099%=      5-min Rain = 0
KMD1 231107Z 08005KT 17/17 A2995 RMK A01 T01710170  RH  099%=      5-min Rain = 0
KMD1 231108Z 08005KT 17/17 A2995 RMK A01 T01710170  RH  099%=      5-min Rain = 0
KMD1 231109Z 09005KT 17/17 A2995 RMK A01 T01710170  RH  099%=      5-min Rain = 0
KMD1 231110Z 08005KT 17/17 A2995 RMK A01 T01710170  RH  099%=      5-min Rain = 0
KMD1 231111Z 07005KT 17/17 A2996 RMK A01 T01710170  RH  099%=      5-min Rain = 0
KMD1 231112Z 08006KT 17/17 A2996 RMK A01 T01710169  RH  099%=      5-min Rain = 0
KMD1 231113Z 08005KT 17/17 A2996 RMK A01 T01710170  RH  099%=      5-min Rain = 0
KMD1 231114Z 08006KT 17/17 A2996 RMK A01 T01710169  RH  099%=      5-min Rain = 0
KMD1 231115Z 08005KT 17/17 A2996 RMK A01 T01710170  RH  099%=      5-min Rain = 0
KMD1 231116Z 08005KT 17/17 A2996 RMK A01 T01710170  RH  099%=      5-min Rain = 0
KMD1 231117Z 08005KT 17/17 A2996 RMK A01 T01710170  RH  099%=      5-min Rain = 0
KMD1 231118Z 08004KT 17/17 A2996 RMK A01 T01710170  RH  099%=      5-min Rain = 0
KMD1 231119Z 07005KT 17/17 A2996 RMK A01 T01710170  RH  099%=      5-min Rain = 0
KMD1 231120Z 07004KT 17/17 A2996 RMK A01 T01710170  RH  099%=      5-min Rain = 0
KMD1 231121Z 07003KT 17/17 A2996 RMK A01 T01710170  RH  099%=      5-min Rain = 0
KMD1 231122Z 07003KT 17/17 A2996 RMK A01 T01710170  RH  099%=      5-min Rain = 0
KMD1 231123Z 07004KT 17/17 A2996 RMK A01 T01710170  RH  099%=      5-min Rain = 0
KMD1 231124Z 08004KT 17/17 A2997 RMK A01 T01710170  RH  099%=      5-min Rain = 0
KMD1 231125Z 08003KT 17/17 A2997 RMK A01 T01710170  RH  099%=      5-min Rain = 0
KMD1 231126Z 08003KT 17/17 A2997 RMK A01 T01710170  RH  099%=      5-min Rain = 0
KMD1 231127Z 08003KT 17/17 A2997 RMK A01 T01710170  RH  099%=      5-min Rain = 0
KMD1 231128Z 08004KT 17/17 A2997 RMK A01 T01710170  RH  099%=      5-min Rain = 0
KMD1 231129Z 08004KT 17/17 A2997 RMK A01 T01710170  RH  099%=      5-min Rain = 0
KMD1 231130Z 08004KT 17/17 A2997 RMK A01 T01710170  RH  099%=      5-min Rain = 0
KMD1 231131Z 08003KT 17/17 A2997 RMK A01 T01710170  RH  099%=      5-min Rain = 0
KMD1 231132Z 06003KT 17/17 A2997 RMK A01 T01710170  RH  099%=      5-min Rain = 0
KMD1 231133Z 08004KT 17/17 A2997 RMK A01 T01710170  RH  099%=      5-min Rain = 0
KMD1 231134Z 07004KT 17/17 A2997 RMK A01 T01710170  RH  099%=      5-min Rain = 0
KMD1 231135Z 07004KT 17/17 A2997 RMK A01 T01710170  RH  099%=      5-min Rain = 0
KMD1 231136Z 08004KT 17/17 A2997 RMK A01 T01710170  RH  099%=      5-min Rain = 0
KMD1 231137Z 08004KT 17/17 A2997 RMK A01 T01710170  RH  099%=      5-min Rain = 0
KMD1 231138Z 07004KT 17/17 A2997 RMK A01 T01710170  RH  099%=      5-min Rain = 0
KMD1 231139Z 08005KT 17/17 A2997 RMK A01 T01710170  RH  099%=      5-min Rain = 0
KMD1 231140Z 08005KT 17/17 A2997 RMK A01 T01710170  RH  099%=      5-min Rain = 0
KMD1 231141Z 07005KT 17/17 A2997 RMK A01 T01710170  RH  099%=      5-min Rain = 0
KMD1 231142Z 07006KT 17/17 A2997 RMK A01 T01710170  RH  099%=      5-min Rain = 0
KMD1 231143Z 06005KT 17/17 A2997 RMK A01 T01710170  RH  099%=      5-min Rain = 0
KMD1 231144Z 06005KT 17/17 A2997 RMK A01 T01710170  RH  099%=      5-min Rain = 0
KMD1 231145Z 07006KT 17/17 A2997 RMK A01 T01710170  RH  099%=      5-min Rain = 0
KMD1 231146Z 06005KT 17/17 A2997 RMK A01 T01710170  RH  099%=      5-min Rain = 0
KMD1 231147Z 06004KT 17/17 A2997 RMK A01 T01710170  RH  099%=      5-min Rain = 0
KMD1 231148Z 06005KT 17/17 A2997 RMK A01 T01710170  RH  099%=      5-min Rain = 0
KMD1 231149Z 07005KT 17/17 A2997 RMK A01 T01710170  RH  099%=      5-min Rain = 0
KMD1 231150Z 07005KT 17/17 A2997 RMK A01 T01710170  RH  099%=      5-min Rain = 0
KMD1 231151Z 07004KT 17/17 A2997 RMK A01 T01710171  RH  100%=      5-min Rain = 0
KMD1 231152Z 07005KT 17/17 A2997 RMK A01 T01710170  RH  100%=      5-min Rain = 0
KMD1 231153Z 07005KT 17/17 A2997 RMK A01 T01710170  RH  100%=      5-min Rain = 0
KMD1 231154Z 07004KT 17/17 A2997 RMK A01 T01710170  RH  100%=      5-min Rain = 0
KMD1 231155Z 07005KT 17/17 A2997 RMK A01 T01710170  RH  100%=      5-min Rain = 0
KMD1 231156Z 07005KT 17/17 A2997 RMK A01 T01710170  RH  100%=      5-min Rain = 0
KMD1 231157Z 07005KT 17/17 A2997 RMK A01 T01710170  RH  100%=      5-min Rain = 0
KMD1 231158Z 07005KT 17/17 A2997 RMK A01 T01710171  RH  100%=      5-min Rain = 0
KMD1 231159Z 07005KT 17/17 A2997 RMK A01 T01710170  RH  100%=      5-min Rain = 0
KMD1 231200Z 08005KT 17/17 A2997 RMK A01 T01710170  RH  100%=      5-min Rain = 0
KMD1 231201Z 07004KT 17/17 A2997 RMK A01 T01710170  RH  100%=      5-min Rain = 0
KMD1 231202Z 07004KT 17/17 A2997 RMK A01 T01710170  RH  100%=      5-min Rain = 0
KMD1 231203Z 06004KT 17/17 A2997 RMK A01 T01710170  RH  100%=      5-min Rain = 0
KMD1 231204Z 07005KT 17/17 A2997 RMK A01 T01710170  RH  100%=      5-min Rain = 0
KMD1 231205Z 06005KT 17/17 A2997 RMK A01 T01710170  RH  100%=      5-min Rain = 0
KMD1 231206Z 07004KT 17/17 A2997 RMK A01 T01710171  RH  100%=      5-min Rain = 0
KMD1 231207Z 06005KT 17/17 A2997 RMK A01 T01710170  RH  100%=      5-min Rain = 0
KMD1 231208Z 07005KT 17/17 A2997 RMK A01 T01710170  RH  100%=      5-min Rain = 0
KMD1 231209Z 07004KT 17/17 A2997 RMK A01 T01710170  RH  100%=      5-min Rain = 0
KMD1 231210Z 06004KT 17/17 A2998 RMK A01 T01710170  RH  100%=      5-min Rain = 0
KMD1 231211Z 06004KT 17/17 A2998 RMK A01 T01710170  RH  100%=      5-min Rain = 0
KMD1 231212Z 06004KT 17/17 A2998 RMK A01 T01710171  RH  100%=      5-min Rain = 0
KMD1 231213Z 06004KT 17/17 A2998 RMK A01 T01710170  RH  100%=      5-min Rain = 0
KMD1 231214Z 06004KT 17/17 A2998 RMK A01 T01710171  RH  100%=      5-min Rain = 0
KMD1 231215Z 05004KT 17/17 A2998 RMK A01 T01710170  RH  100%=      5-min Rain = 0
KMD1 231216Z 05004KT 17/17 A2998 RMK A01 T01710170  RH  100%=      5-min Rain = 0
KMD1 231217Z 05004KT 17/17 A2998 RMK A01 T01710170  RH  100%=      5-min Rain = 0
KMD1 231218Z 04004KT 17/17 A2998 RMK A01 T01710170  RH  100%=      5-min Rain = 0
KMD1 231219Z 05005KT 17/17 A2998 RMK A01 T01710170  RH  100%=      5-min Rain = 0
KMD1 231220Z 05004KT 17/17 A2998 RMK A01 T01710170  RH  100%=      5-min Rain = 0
KMD1 231221Z 06005KT 17/17 A2998 RMK A01 T01710170  RH  100%=      5-min Rain = 0
KMD1 231222Z 06004KT 17/17 A2998 RMK A01 T01710170  RH  100%=      5-min Rain = 0
KMD1 231223Z 06005KT 17/17 A2998 RMK A01 T01710170  RH  099%=      5-min Rain = 0
KMD1 231224Z 07004KT 17/17 A2998 RMK A01 T01710170  RH  099%=      5-min Rain = 0
KMD1 231225Z 06004KT 17/17 A2998 RMK A01 T01710170  RH  099%=      5-min Rain = 0
KMD1 231226Z 06004KT 17/17 A2998 RMK A01 T01710170  RH  099%=      5-min Rain = 0
KMD1 231227Z 05004KT 17/17 A2998 RMK A01 T01710170  RH  099%=      5-min Rain = 0
KMD1 231228Z 05004KT 17/17 A2998 RMK A01 T01710170  RH  099%=      5-min Rain = 0
KMD1 231229Z 06004KT 17/17 A2998 RMK A01 T01710170  RH  099%=      5-min Rain = 0
KMD1 231230Z 06004KT 17/17 A2998 RMK A01 T01710170  RH  099%=      5-min Rain = 0
KMD1 231231Z 05004KT 17/17 A2998 RMK A01 T01710170  RH  099%=      5-min Rain = 0
KMD1 231232Z 05004KT 17/17 A2998 RMK A01 T01710170  RH  099%=      5-min Rain = 0
KMD1 231233Z 05003KT 17/17 A2998 RMK A01 T01710170  RH  099%=      5-min Rain = 0
KMD1 231234Z 05004KT 17/17 A2998 RMK A01 T01710170  RH  099%=      5-min Rain = 0
KMD1 231235Z 05004KT 17/17 A2998 RMK A01 T01710170  RH  099%=      5-min Rain = 0
KMD1 231236Z 06003KT 17/17 A2998 RMK A01 T01710169  RH  099%=      5-min Rain = 0
KMD1 231237Z 05002KT 17/17 A2999 RMK A01 T01710170  RH  099%=      5-min Rain = 0
KMD1 231238Z 05003KT 17/17 A2999 RMK A01 T01710170  RH  099%=      5-min Rain = 0
KMD1 231239Z 04003KT 17/17 A2999 RMK A01 T01710170  RH  099%=      5-min Rain = 0
KMD1 231240Z 05004KT 17/17 A2999 RMK A01 T01710170  RH  099%=      5-min Rain = 0
KMD1 231241Z 05003KT 17/17 A2999 RMK A01 T01710170  RH  099%=      5-min Rain = 0
KMD1 231242Z 05003KT 17/17 A2999 RMK A01 T01710170  RH  099%=      5-min Rain = 0
KMD1 231243Z 04004KT 17/17 A2999 RMK A01 T01720170  RH  099%=      5-min Rain = 0
KMD1 231244Z 05004KT 17/17 A2999 RMK A01 T01720170  RH  099%=      5-min Rain = 0
KMD1 231245Z 05003KT 17/17 A2999 RMK A01 T01720170  RH  099%=      5-min Rain = 0
KMD1 231246Z 05003KT 17/17 A2999 RMK A01 T01720170  RH  099%=      5-min Rain = 0
KMD1 231247Z 05003KT 17/17 A2999 RMK A01 T01720170  RH  099%=      5-min Rain = 0
KMD1 231248Z 06003KT 17/17 A30 RMK A01 T01720170  RH  099%=      5-min Rain = 0
KMD1 231249Z 06004KT 17/17 A30 RMK A01 T01720170  RH  099%=      5-min Rain = 0
KMD1 231250Z 05004KT 17/17 A30 RMK A01 T01720170  RH  099%=      5-min Rain = 0
KMD1 231251Z 05003KT 17/17 A30 RMK A01 T01720170  RH  099%=      5-min Rain = 0
KMD1 231252Z 04003KT 17/17 A30 RMK A01 T01720170  RH  099%=      5-min Rain = 0
KMD1 231253Z 05004KT 17/17 A30 RMK A01 T01720170  RH  099%=      5-min Rain = 0
KMD1 231254Z 06003KT 17/17 A30 RMK A01 T01720170  RH  099%=      5-min Rain = 0
KMD1 231255Z 05003KT 17/17 A30 RMK A01 T01720170  RH  099%=      5-min Rain = 0
KMD1 231256Z 05003KT 17/17 A30 RMK A01 T01720170  RH  099%=      5-min Rain = 0
KMD1 231257Z 05003KT 17/17 A30 RMK A01 T01730171  RH  099%=      5-min Rain = 0
KMD1 231258Z 05003KT 17/17 A30 RMK A01 T01730171  RH  099%=      5-min Rain = 0
KMD1 231259Z 05004KT 17/17 A30 RMK A01 T01720170  RH  099%=      5-min Rain = 0
KMD1 231300Z 05003KT 17/17 A30 RMK A01 T01730171  RH  098%=      5-min Rain = 0
KMD1 231301Z 06003KT 17/17 A30 RMK A01 T01730170  RH  098%=      5-min Rain = 0
KMD1 231302Z 06003KT 17/17 A30 RMK A01 T01730170  RH  098%=      5-min Rain = 0
KMD1 231303Z 06003KT 17/17 A30 RMK A01 T01730170  RH  098%=      5-min Rain = 0
KMD1 231304Z 06004KT 17/17 A30 RMK A01 T01730171  RH  098%=      5-min Rain = 0
KMD1 231305Z 06004KT 17/17 A30 RMK A01 T01730170  RH  098%=      5-min Rain = 0
KMD1 231306Z 07004KT 17/17 A30 RMK A01 T01730171  RH  098%=      5-min Rain = 0
KMD1 231307Z 06003KT 17/17 A30 RMK A01 T01730171  RH  098%=      5-min Rain = 0
KMD1 231308Z 06003KT 17/17 A30 RMK A01 T01730170  RH  098%=      5-min Rain = 0
KMD1 231309Z 06003KT 17/17 A30 RMK A01 T01730171  RH  098%=      5-min Rain = 0
KMD1 231310Z 07004KT 17/17 A3001 RMK A01 T01730170  RH  098%=      5-min Rain = 0
KMD1 231311Z 07004KT 17/17 A3001 RMK A01 T01730171  RH  098%=      5-min Rain = 0
KMD1 231312Z 07004KT 17/17 A3001 RMK A01 T01730171  RH  098%=      5-min Rain = 0
KMD1 231313Z 08004KT 17/17 A3001 RMK A01 T01730170  RH  098%=      5-min Rain = 0
KMD1 231314Z 07004KT 17/17 A3001 RMK A01 T01730170  RH  098%=      5-min Rain = 0
KMD1 231315Z 07004KT 17/17 A3001 RMK A01 T01730170  RH  098%=      5-min Rain = 0
KMD1 231316Z 06004KT 17/17 A3001 RMK A01 T01730170  RH  098%=      5-min Rain = 0
KMD1 231317Z 07004KT 17/17 A3001 RMK A01 T01730170  RH  098%=      5-min Rain = 0
KMD1 231318Z 06003KT 17/17 A3001 RMK A01 T01730170  RH  098%=      5-min Rain = 0
KMD1 231319Z 07003KT 17/17 A3001 RMK A01 T01740170  RH  098%=      5-min Rain = 0
KMD1 231320Z 07003KT 17/17 A3001 RMK A01 T01740170  RH  098%=      5-min Rain = 0
KMD1 231321Z 06003KT 17/17 A3001 RMK A01 T01740171  RH  098%=      5-min Rain = 0
KMD1 231322Z 07003KT 17/17 A3001 RMK A01 T01740171  RH  098%=      5-min Rain = 0
KMD1 231323Z 06003KT 17/17 A3001 RMK A01 T01740171  RH  098%=      5-min Rain = 0
KMD1 231324Z 06003KT 18/17 A3001 RMK A01 T01750171  RH  098%=      5-min Rain = 0
KMD1 231325Z 06003KT 18/17 A3001 RMK A01 T01750171  RH  098%=      5-min Rain = 0
KMD1 231326Z 07004KT 18/17 A3001 RMK A01 T01750171  RH  098%=      5-min Rain = 0
KMD1 231327Z 07003KT 18/17 A3001 RMK A01 T01750171  RH  097%=      5-min Rain = 0
KMD1 231328Z 06004KT 18/17 A3001 RMK A01 T01750171  RH  097%=      5-min Rain = 0
KMD1 231329Z 05003KT 18/17 A3001 RMK A01 T01750171  RH  097%=      5-min Rain = 0
KMD1 231330Z 06003KT 18/17 A3001 RMK A01 T01750171  RH  097%=      5-min Rain = 0
KMD1 231331Z 05003KT 18/17 A3001 RMK A01 T01750171  RH  097%=      5-min Rain = 0
KMD1 231332Z 05003KT 18/17 A3001 RMK A01 T01750171  RH  097%=      5-min Rain = 0
KMD1 231333Z 07003KT 18/17 A3001 RMK A01 T01750171  RH  097%=      5-min Rain = 0
KMD1 231334Z 06003KT 18/17 A3001 RMK A01 T01750171  RH  097%=      5-min Rain = 0
KMD1 231335Z 07004KT 18/17 A3001 RMK A01 T01750171  RH  097%=      5-min Rain = 0
KMD1 231336Z 07004KT 18/17 A3001 RMK A01 T01750171  RH  097%=      5-min Rain = 0
KMD1 231337Z 06003KT 18/17 A3001 RMK A01 T01760171  RH  097%=      5-min Rain = 0
KMD1 231338Z 05003KT 18/17 A3001 RMK A01 T01760171  RH  097%=      5-min Rain = 0
KMD1 231339Z 06004KT 18/17 A3001 RMK A01 T01760171  RH  097%=      5-min Rain = 0
KMD1 231340Z 06004KT 18/17 A3001 RMK A01 T01760171  RH  097%=      5-min Rain = 0
KMD1 231341Z 07003KT 18/17 A3001 RMK A01 T01760171  RH  097%=      5-min Rain = 0
KMD1 231342Z 07003KT 18/17 A3001 RMK A01 T01760171  RH  097%=      5-min Rain = 0
KMD1 231343Z 07003KT 18/17 A3001 RMK A01 T01760171  RH  097%=      5-min Rain = 0
KMD1 231344Z 07004KT 18/17 A3001 RMK A01 T01760171  RH  096%=      5-min Rain = 0
KMD1 231345Z 07004KT 18/17 A3001 RMK A01 T01760171  RH  096%=      5-min Rain = 0
KMD1 231346Z 08005KT 18/17 A3001 RMK A01 T01770171  RH  096%=      5-min Rain = 0
KMD1 231347Z 07004KT 18/17 A3001 RMK A01 T01770170  RH  096%=      5-min Rain = 0
KMD1 231348Z 08004KT 18/17 A3001 RMK A01 T01780172  RH  096%=      5-min Rain = 0
KMD1 231349Z 08004KT 18/17 A3001 RMK A01 T01780171  RH  096%=      5-min Rain = 0
KMD1 231350Z 06003KT 18/17 A3001 RMK A01 T01780171  RH  096%=      5-min Rain = 0
KMD1 231351Z 07003KT 18/17 A3001 RMK A01 T01780171  RH  096%=      5-min Rain = 0
KMD1 231352Z 08003KT 18/17 A3001 RMK A01 T01780172  RH  096%=      5-min Rain = 0
KMD1 231353Z 08003KT 18/17 A3001 RMK A01 T01790172  RH  096%=      5-min Rain = 0
KMD1 231354Z 07003KT 18/17 A3001 RMK A01 T01790171  RH  095%=      5-min Rain = 0
KMD1 231355Z 07004KT 18/17 A3001 RMK A01 T01780171  RH  096%=      5-min Rain = 0
KMD1 231356Z 07004KT 18/17 A3001 RMK A01 T01780171  RH  095%=      5-min Rain = 0
KMD1 231357Z 07003KT 18/17 A3001 RMK A01 T01780170  RH  095%=      5-min Rain = 0
KMD1 231358Z 07004KT 18/17 A3002 RMK A01 T01780170  RH  095%=      5-min Rain = 0
KMD1 231359Z 07004KT 18/17 A3002 RMK A01 T01780170  RH  095%=      5-min Rain = 0
KMD1 231400Z 07003KT 18/17 A3001 RMK A01 T01780170  RH  095%=      5-min Rain = 0
KMD1 231401Z 06003KT 18/17 A3002 RMK A01 T01790170  RH  095%=      5-min Rain = 0
KMD1 231402Z 07003KT 18/17 A3002 RMK A01 T01790170  RH  094%=      5-min Rain = 0
KMD1 231403Z 07005KT 18/17 A3002 RMK A01 T01790170  RH  094%=      5-min Rain = 0
KMD1 231404Z 06005KT 18/17 A3002 RMK A01 T01790169  RH  094%=      5-min Rain = 0
KMD1 231405Z 06003KT 18/17 A3002 RMK A01 T01790168  RH  093%=      5-min Rain = 0
KMD1 231406Z 06004KT 18/17 A3002 RMK A01 T01790169  RH  094%=      5-min Rain = 0
KMD1 231407Z 06004KT 18/17 A3002 RMK A01 T01800169  RH  094%=      5-min Rain = 0
KMD1 231408Z 06004KT 18/17 A3002 RMK A01 T01800170  RH  094%=      5-min Rain = 0
KMD1 231409Z 06003KT 18/17 A3002 RMK A01 T01800170  RH  094%=      5-min Rain = 0
KMD1 231410Z 06003KT 18/17 A3002 RMK A01 T01810171  RH  094%=      5-min Rain = 0
KMD1 231411Z 06004KT 18/17 A3002 RMK A01 T01810171  RH  094%=      5-min Rain = 0
KMD1 231412Z 07004KT 18/17 A3002 RMK A01 T01810170  RH  093%=      5-min Rain = 0
KMD1 231413Z 07003KT 18/17 A3002 RMK A01 T01810171  RH  094%=      5-min Rain = 0
KMD1 231414Z 07003KT 18/17 A3002 RMK A01 T01810171  RH  094%=      5-min Rain = 0
KMD1 231415Z 09003KT 18/17 A3002 RMK A01 T01810171  RH  093%=      5-min Rain = 0
KMD1 231416Z 09003KT 18/17 A3002 RMK A01 T01810170  RH  093%=      5-min Rain = 0
KMD1 231417Z 08003KT 18/17 A3002 RMK A01 T01810171  RH  093%=      5-min Rain = 0
KMD1 231418Z 08003KT 18/17 A3002 RMK A01 T01820171  RH  094%=      5-min Rain = 0
KMD1 231419Z 07004KT 18/17 A3002 RMK A01 T01820170  RH  093%=      5-min Rain = 0
KMD1 231420Z 08003KT 18/17 A3002 RMK A01 T01820170  RH  093%=      5-min Rain = 0
KMD1 231421Z 09003KT 18/17 A3002 RMK A01 T01820171  RH  093%=      5-min Rain = 0
KMD1 231422Z 08004KT 18/17 A3002 RMK A01 T01820170  RH  093%=      5-min Rain = 0
KMD1 231423Z 08005KT 18/17 A3002 RMK A01 T01820170  RH  093%=      5-min Rain = 0
KMD1 231424Z 08004KT 18/17 A3002 RMK A01 T01820170  RH  092%=      5-min Rain = 0
KMD1 231425Z 08004KT 18/17 A3002 RMK A01 T01820170  RH  092%=      5-min Rain = 0
KMD1 231426Z 11003KT 18/17 A3002 RMK A01 T01830172  RH  093%=      5-min Rain = 0
KMD1 231427Z 08003KT 18/17 A3002 RMK A01 T01830172  RH  093%=      5-min Rain = 0
KMD1 231428Z 08005KT 18/17 A3003 RMK A01 T01840171  RH  092%=      5-min Rain = 0
KMD1 231429Z 09004KT 18/17 A3002 RMK A01 T01830170  RH  092%=      5-min Rain = 0
KMD1 231430Z 08004KT 18/17 A3002 RMK A01 T01830171  RH  093%=      5-min Rain = 0
KMD1 231431Z 09004KT 18/17 A3002 RMK A01 T01830171  RH  092%=      5-min Rain = 0
KMD1 231432Z 09004KT 18/17 A3002 RMK A01 T01830171  RH  092%=      5-min Rain = 0
KMD1 231433Z 08004KT 18/17 A3003 RMK A01 T01830171  RH  092%=      5-min Rain = 0
KMD1 231434Z 07004KT 18/17 A3003 RMK A01 T01830171  RH  093%=      5-min Rain = 0
KMD1 231435Z 07005KT 18/17 A3003 RMK A01 T01830171  RH  092%=      5-min Rain = 0
KMD1 231436Z 08005KT 18/17 A3003 RMK A01 T01830170  RH  092%=      5-min Rain = 0
KMD1 231437Z 08004KT 18/17 A3003 RMK A01 T01830170  RH  092%=      5-min Rain = 0
KMD1 231438Z 09004KT 18/17 A3003 RMK A01 T01830171  RH  093%=      5-min Rain = 0
KMD1 231439Z 08004KT 18/17 A3003 RMK A01 T01830172  RH  093%=      5-min Rain = 0
KMD1 231440Z 10005KT 18/17 A3003 RMK A01 T01840171  RH  092%=      5-min Rain = 0
KMD1 231441Z 10004KT 18/17 A3003 RMK A01 T01840170  RH  092%=      5-min Rain = 0
KMD1 231442Z 09004KT 18/17 A3003 RMK A01 T01840170  RH  092%=      5-min Rain = 0
KMD1 231443Z 09004KT 18/17 A3003 RMK A01 T01840171  RH  092%=      5-min Rain = 0
KMD1 231444Z 09005KT 18/17 A3003 RMK A01 T01840170  RH  091%=      5-min Rain = 0
KMD1 231445Z 09005KT 18/17 A3003 RMK A01 T01840170  RH  092%=      5-min Rain = 0
KMD1 231446Z 10005KT 18/17 A3003 RMK A01 T01840169  RH  091%=      5-min Rain = 0
KMD1 231447Z 10004KT 19/17 A3003 RMK A01 T01850170  RH  091%=      5-min Rain = 0
KMD1 231448Z 11005KT 19/17 A3003 RMK A01 T01850171  RH  092%=      5-min Rain = 0
KMD1 231449Z 11004KT 19/17 A3003 RMK A01 T01850171  RH  091%=      5-min Rain = 0
KMD1 231450Z 10004KT 19/17 A3003 RMK A01 T01850171  RH  092%=      5-min Rain = 0
KMD1 231451Z 11007KT 19/17 A3003 RMK A01 T01850171  RH  091%=      5-min Rain = 0
KMD1 231452Z 10006KT 19/17 A3003 RMK A01 T01850169  RH  090%=      5-min Rain = 0
KMD1 231453Z 10005KT 18/17 A3003 RMK A01 T01840169  RH  091%=      5-min Rain = 0
KMD1 231454Z 10005KT 18/17 A3003 RMK A01 T01840169  RH  091%=      5-min Rain = 0
KMD1 231455Z 10007KT 19/17 A3003 RMK A01 T01850170  RH  091%=      5-min Rain = 0
KMD1 231456Z 09006KT 19/17 A3003 RMK A01 T01850169  RH  090%=      5-min Rain = 0
KMD1 231457Z 09006KT 19/17 A3003 RMK A01 T01850168  RH  090%=      5-min Rain = 0
KMD1 231458Z 10006KT 19/17 A3003 RMK A01 T01850168  RH  090%=      5-min Rain = 0
KMD1 231459Z 09006KT 19/17 A3003 RMK A01 T01850168  RH  090%=      5-min Rain = 0
KMD1 231500Z 09006KT 18/17 A3003 RMK A01 T01840169  RH  090%=      5-min Rain = 0
KMD1 231501Z 09007KT 19/17 A3003 RMK A01 T01850168  RH  090%=      5-min Rain = 0
KMD1 231502Z 09007KT 19/17 A3003 RMK A01 T01850168  RH  090%=      5-min Rain = 0
KMD1 231503Z 09005KT 19/17 A3003 RMK A01 T01850168  RH  090%=      5-min Rain = 0
KMD1 231504Z 09006KT 19/17 A3003 RMK A01 T01850169  RH  091%=      5-min Rain = 0
KMD1 231505Z 10006KT 19/17 A3003 RMK A01 T01850169  RH  090%=      5-min Rain = 0
KMD1 231506Z 10007KT 19/17 A3003 RMK A01 T01860169  RH  090%=      5-min Rain = 0
KMD1 231507Z 10006KT 19/17 A3003 RMK A01 T01860169  RH  090%=      5-min Rain = 0
KMD1 231508Z 11006KT 19/17 A3003 RMK A01 T01850169  RH  090%=      5-min Rain = 0
KMD1 231509Z 11007KT 19/17 A3003 RMK A01 T01860169  RH  090%=      5-min Rain = 0
KMD1 231510Z 11006KT 19/17 A3003 RMK A01 T01860168  RH  090%=      5-min Rain = 0
KMD1 231511Z 10006KT 19/17 A3003 RMK A01 T01860169  RH  090%=      5-min Rain = 0
KMD1 231512Z 10006KT 19/17 A3003 RMK A01 T01860169  RH  090%=      5-min Rain = 0
KMD1 231513Z 11006KT 19/17 A3003 RMK A01 T01860169  RH  090%=      5-min Rain = 0
KMD1 231514Z 12006KT 19/17 A3003 RMK A01 T01860168  RH  089%=      5-min Rain = 0
KMD1 231515Z 11006KT 19/17 A3003 RMK A01 T01860170  RH  090%=      5-min Rain = 0
KMD1 231516Z 11006KT 19/17 A3003 RMK A01 T01870170  RH  090%=      5-min Rain = 0
KMD1 231517Z 10005KT 19/17 A3003 RMK A01 T01870168  RH  089%=      5-min Rain = 0
KMD1 231518Z 10006KT 19/17 A3003 RMK A01 T01870169  RH  090%=      5-min Rain = 0
KMD1 231519Z 11007KT 19/17 A3003 RMK A01 T01870167  RH  088%=      5-min Rain = 0
KMD1 231520Z 11008KT 19/17 A3003 RMK A01 T01870166  RH  088%=      5-min Rain = 0
KMD1 231521Z 11007KT 19/17 A3003 RMK A01 T01870166  RH  088%=      5-min Rain = 0
KMD1 231522Z 11008KT 19/17 A3003 RMK A01 T01870167  RH  088%=      5-min Rain = 0
KMD1 231523Z 11007KT 19/17 A3003 RMK A01 T01870167  RH  088%=      5-min Rain = 0
KMD1 231524Z 10006KT 19/17 A3003 RMK A01 T01870168  RH  089%=      5-min Rain = 0
KMD1 231525Z 11007KT 19/17 A3003 RMK A01 T01870167  RH  088%=      5-min Rain = 0
KMD1 231526Z 10008KT 19/17 A3003 RMK A01 T01870167  RH  088%=      5-min Rain = 0
KMD1 231527Z 10008KT 19/17 A3003 RMK A01 T01880168  RH  088%=      5-min Rain = 0
KMD1 231528Z 10007KT 19/17 A3003 RMK A01 T01880168  RH  088%=      5-min Rain = 0
KMD1 231529Z 10007KT 19/17 A3003 RMK A01 T01880167  RH  088%=      5-min Rain = 0
KMD1 231530Z 10006KT 19/17 A3003 RMK A01 T01880168  RH  088%=      5-min Rain = 0
KMD1 231531Z 10007KT 19/17 A3003 RMK A01 T01880169  RH  088%=      5-min Rain = 0
KMD1 231532Z 11006KT 19/17 A3003 RMK A01 T01890168  RH  088%=      5-min Rain = 0
KMD1 231533Z 10007KT 19/17 A3003 RMK A01 T01890170  RH  088%=      5-min Rain = 0
KMD1 231534Z 10008KT 19/17 A3003 RMK A01 T01890168  RH  087%=      5-min Rain = 0
KMD1 231535Z 10007KT 19/17 A3003 RMK A01 T01890168  RH  087%=      5-min Rain = 0
KMD1 231536Z 10006KT 19/17 A3003 RMK A01 T01890166  RH  087%=      5-min Rain = 0
KMD1 231537Z 10006KT 19/17 A3003 RMK A01 T01890167  RH  087%=      5-min Rain = 0
KMD1 231538Z 10006KT 19/17 A3003 RMK A01 T01890168  RH  087%=      5-min Rain = 0
KMD1 231539Z 10007KT 19/17 A3003 RMK A01 T01890168  RH  087%=      5-min Rain = 0
KMD1 231540Z 10007KT 19/17 A3003 RMK A01 T01890167  RH  087%=      5-min Rain = 0
KMD1 231541Z 09007KT 19/17 A3003 RMK A01 T01890169  RH  088%=      5-min Rain = 0
KMD1 231542Z 10008KT 19/17 A3003 RMK A01 T01900169  RH  087%=      5-min Rain = 0
KMD1 231543Z 11007KT 19/17 A3003 RMK A01 T01900167  RH  086%=      5-min Rain = 0
KMD1 231544Z 11007KT 19/17 A3003 RMK A01 T01900167  RH  087%=      5-min Rain = 0
KMD1 231545Z 10006KT 19/17 A3003 RMK A01 T01900168  RH  087%=      5-min Rain = 0
KMD1 231546Z 08007KT 19/17 A3003 RMK A01 T01900168  RH  087%=      5-min Rain = 0
KMD1 231547Z 08008KT 19/17 A3003 RMK A01 T01890167  RH  087%=      5-min Rain = 0
KMD1 231548Z 08007KT 19/17 A3003 RMK A01 T01900168  RH  087%=      5-min Rain = 0
KMD1 231549Z 09006KT 19/17 A3003 RMK A01 T01900168  RH  087%=      5-min Rain = 0
KMD1 231550Z 08007KT 19/17 A3003 RMK A01 T01900169  RH  088%=      5-min Rain = 0
KMD1 231551Z 08008KT 19/17 A3002 RMK A01 T01900168  RH  087%=      5-min Rain = 0
KMD1 231552Z 08009KT 19/17 A3003 RMK A01 T01900167  RH  087%=      5-min Rain = 0
KMD1 231553Z 08008KT 19/17 A3003 RMK A01 T01900167  RH  087%=      5-min Rain = 0
KMD1 231554Z 08007KT 19/17 A3003 RMK A01 T01900168  RH  087%=      5-min Rain = 0
KMD1 231555Z 09007KT 19/17 A3003 RMK A01 T01910169  RH  087%=      5-min Rain = 0
KMD1 231556Z 08007KT 19/17 A3003 RMK A01 T01910170  RH  087%=      5-min Rain = 0
KMD1 231557Z 09007KT 19/17 A3003 RMK A01 T01910168  RH  086%=      5-min Rain = 0
KMD1 231558Z 11006KT 19/17 A3003 RMK A01 T01910168  RH  087%=      5-min Rain = 0
KMD1 231559Z 11006KT 19/17 A3003 RMK A01 T01910168  RH  087%=      5-min Rain = 0
KMD1 231600Z 10007KT 19/17 A3003 RMK A01 T01910169  RH  087%=      5-min Rain = 0
KMD1 231601Z 10008KT 19/17 A3003 RMK A01 T01910169  RH  087%=      5-min Rain = 0
KMD1 231602Z 09007KT 19/17 A3003 RMK A01 T01910168  RH  087%=      5-min Rain = 0
KMD1 231603Z 10005KT 19/17 A3003 RMK A01 T01910169  RH  087%=      5-min Rain = 0
KMD1 231604Z 09007KT 19/17 A3003 RMK A01 T01910170  RH  087%=      5-min Rain = 0
KMD1 231605Z 10007KT 19/17 A3003 RMK A01 T01920169  RH  087%=      5-min Rain = 0
KMD1 231606Z 10007KT 19/17 A3003 RMK A01 T01920169  RH  087%=      5-min Rain = 0
KMD1 231607Z 10007KT 19/17 A3003 RMK A01 T01920168  RH  086%=      5-min Rain = 0
KMD1 231608Z 09006KT 19/17 A3003 RMK A01 T01910169  RH  087%=      5-min Rain = 0
KMD1 231609Z 09005KT 19/17 A3003 RMK A01 T01920169  RH  087%=      5-min Rain = 0
KMD1 231610Z 10007KT 19/17 A3003 RMK A01 T01920169  RH  086%=      5-min Rain = 0
KMD1 231611Z 09006KT 19/17 A3003 RMK A01 T01920168  RH  086%=      5-min Rain = 0
KMD1 231612Z 09006KT 19/17 A3003 RMK A01 T01920168  RH  086%=      5-min Rain = 0
KMD1 231613Z 08006KT 19/17 A3003 RMK A01 T01920168  RH  086%=      5-min Rain = 0
KMD1 231614Z 07006KT 19/17 A3003 RMK A01 T01920168  RH  086%=      5-min Rain = 0
KMD1 231615Z 07006KT 19/17 A3003 RMK A01 T01920170  RH  087%=      5-min Rain = 0
KMD1 231616Z 08006KT 19/17 A3003 RMK A01 T01930171  RH  087%=      5-min Rain = 0
KMD1 231617Z 08005KT 19/17 A3003 RMK A01 T01930169  RH  086%=      5-min Rain = 0
KMD1 231618Z 09005KT 19/17 A3003 RMK A01 T01930171  RH  087%=      5-min Rain = 0
KMD1 231619Z 09006KT 19/17 A3004 RMK A01 T01940170  RH  086%=      5-min Rain = 0
KMD1 231620Z 09004KT 19/17 A3004 RMK A01 T01940167  RH  085%=      5-min Rain = 0
KMD1 231621Z 10004KT 19/17 A3004 RMK A01 T01930170  RH  086%=      5-min Rain = 0
KMD1 231622Z 10007KT 19/17 A3004 RMK A01 T01940170  RH  086%=      5-min Rain = 0
KMD1 231623Z 08006KT 19/17 A3004 RMK A01 T01930169  RH  086%=      5-min Rain = 0
KMD1 231624Z 09007KT 19/17 A3004 RMK A01 T01930168  RH  085%=      5-min Rain = 0
KMD1 231625Z 08006KT 19/17 A3004 RMK A01 T01930168  RH  085%=      5-min Rain = 0
KMD1 231626Z 08005KT 19/17 A3004 RMK A01 T01940168  RH  085%=      5-min Rain = 0
KMD1 231627Z 08005KT 19/17 A3004 RMK A01 T01930169  RH  086%=      5-min Rain = 0
KMD1 231628Z 09005KT 19/17 A3004 RMK A01 T01940169  RH  086%=      5-min Rain = 0
KMD1 231629Z 09007KT 19/17 A3004 RMK A01 T01940170  RH  086%=      5-min Rain = 0
KMD1 231630Z 09006KT 19/17 A3004 RMK A01 T01940168  RH  085%=      5-min Rain = 0
KMD1 231631Z 08006KT 19/17 A3004 RMK A01 T01940169  RH  085%=      5-min Rain = 0
KMD1 231632Z 08005KT 20/17 A3004 RMK A01 T01950169  RH  085%=      5-min Rain = 0
KMD1 231633Z 09005KT 19/17 A3004 RMK A01 T01940169  RH  085%=      5-min Rain = 0
KMD1 231634Z 08005KT 19/17 A3004 RMK A01 T01940169  RH  085%=      5-min Rain = 0
KMD1 231635Z 10005KT 19/17 A3004 RMK A01 T01940169  RH  086%=      5-min Rain = 0
KMD1 231636Z 11004KT 20/17 A3004 RMK A01 T01950172  RH  087%=      5-min Rain = 0
KMD1 231637Z 09006KT 20/17 A3004 RMK A01 T01950173  RH  087%=      5-min Rain = 0
KMD1 231638Z 10005KT 20/17 A3004 RMK A01 T01950170  RH  085%=      5-min Rain = 0
KMD1 231639Z 09005KT 19/17 A3004 RMK A01 T01940168  RH  085%=      5-min Rain = 0
KMD1 231640Z 10004KT 19/17 A3004 RMK A01 T01940169  RH  086%=      5-min Rain = 0
KMD1 231641Z 11006KT 19/17 A3004 RMK A01 T01940168  RH  085%=      5-min Rain = 0
KMD1 231642Z 10005KT 19/17 A3004 RMK A01 T01940167  RH  085%=      5-min Rain = 0
KMD1 231643Z 10005KT 19/17 A3004 RMK A01 T01930167  RH  085%=      5-min Rain = 0
KMD1 231644Z 09006KT 19/17 A3004 RMK A01 T01930168  RH  085%=      5-min Rain = 0
KMD1 231645Z 09007KT 19/17 A3004 RMK A01 T01940168  RH  085%=      5-min Rain = 0
KMD1 231646Z 10007KT 19/17 A3004 RMK A01 T01930167  RH  085%=      5-min Rain = 0
KMD1 231647Z 10005KT 19/17 A3004 RMK A01 T01930169  RH  086%=      5-min Rain = 0
KMD1 231648Z 09006KT 19/17 A3004 RMK A01 T01930170  RH  087%=      5-min Rain = 0
KMD1 231649Z 09006KT 19/17 A3003 RMK A01 T01940170  RH  086%=      5-min Rain = 0
KMD1 231650Z 09006KT 19/17 A3003 RMK A01 T01940170  RH  086%=      5-min Rain = 0
KMD1 231651Z 09005KT 19/17 A3003 RMK A01 T01940171  RH  086%=      5-min Rain = 0
KMD1 231652Z 08006KT 19/17 A3003 RMK A01 T01940171  RH  086%=      5-min Rain = 0
KMD1 231653Z 09006KT 19/17 A3003 RMK A01 T01940170  RH  086%=      5-min Rain = 0
KMD1 231654Z 09005KT 19/17 A3003 RMK A01 T01940170  RH  086%=      5-min Rain = 0
KMD1 231655Z 09005KT 19/17 A3003 RMK A01 T01940170  RH  086%=      5-min Rain = 0
KMD1 231656Z 10006KT 20/17 A3003 RMK A01 T01950173  RH  087%=      5-min Rain = 0
KMD1 231657Z 10006KT 20/17 A3003 RMK A01 T01960170  RH  085%=      5-min Rain = 0
KMD1 231658Z 11007KT 20/17 A3003 RMK A01 T01960171  RH  086%=      5-min Rain = 0
KMD1 231659Z 10005KT 20/17 A3003 RMK A01 T01960171  RH  086%=      5-min Rain = 0
KMD1 231700Z 11006KT 20/17 A3003 RMK A01 T01960172  RH  086%=      5-min Rain = 0
KMD1 231701Z 10006KT 20/17 A3003 RMK A01 T01970172  RH  086%=      5-min Rain = 0
KMD1 231702Z 10007KT 20/17 A3003 RMK A01 T01970171  RH  085%=      5-min Rain = 0
KMD1 231703Z 10005KT 20/17 A3003 RMK A01 T01960171  RH  085%=      5-min Rain = 0
KMD1 231704Z 10007KT 20/17 A3003 RMK A01 T01960172  RH  086%=      5-min Rain = 0
KMD1 231705Z 10007KT 20/17 A3003 RMK A01 T01970172  RH  086%=      5-min Rain = 0
KMD1 231706Z 11006KT 20/17 A3003 RMK A01 T01970171  RH  085%=      5-min Rain = 0
KMD1 231707Z 11007KT 20/17 A3003 RMK A01 T01960171  RH  085%=      5-min Rain = 0
KMD1 231708Z 11006KT 20/17 A3003 RMK A01 T01970171  RH  085%=      5-min Rain = 0
KMD1 231709Z 09006KT 20/17 A3003 RMK A01 T01960172  RH  086%=      5-min Rain = 0
KMD1 231710Z 09007KT 20/17 A3003 RMK A01 T01970172  RH  085%=      5-min Rain = 0
KMD1 231711Z 08007KT 20/17 A3003 RMK A01 T01970172  RH  085%=      5-min Rain = 0
KMD1 231712Z 09008KT 20/17 A3003 RMK A01 T01980172  RH  085%=      5-min Rain = 0
KMD1 231713Z 09007KT 20/17 A3003 RMK A01 T01990174  RH  086%=      5-min Rain = 0
KMD1 231714Z 08006KT 20/17 A3003 RMK A01 T02000174  RH  085%=      5-min Rain = 0
KMD1 231715Z 09006KT 20/18 A3003 RMK A01 T02000176  RH  086%=      5-min Rain = 0
KMD1 231716Z 09008KT 20/17 A3003 RMK A01 T02010174  RH  084%=      5-min Rain = 0
KMD1 231717Z 11007KT 20/17 A3003 RMK A01 T02010172  RH  083%=      5-min Rain = 0
KMD1 231718Z 08006KT 20/17 A3003 RMK A01 T02010174  RH  084%=      5-min Rain = 0
KMD1 231719Z 09006KT 20/17 A3003 RMK A01 T02010174  RH  084%=      5-min Rain = 0
KMD1 231720Z 10008KT 20/17 A3003 RMK A01 T02020173  RH  084%=      5-min Rain = 0
KMD1 231721Z 10006KT 20/17 A3002 RMK A01 T02010171  RH  083%=      5-min Rain = 0
KMD1 231722Z 08008KT 20/17 A3003 RMK A01 T02010172  RH  084%=      5-min Rain = 0
KMD1 231723Z 08008KT 20/17 A3003 RMK A01 T02000172  RH  084%=      5-min Rain = 0
KMD1 231724Z 08007KT 20/17 A3002 RMK A01 T02000173  RH  084%=      5-min Rain = 0
KMD1 231725Z 11008KT 20/17 A3002 RMK A01 T01990172  RH  084%=      5-min Rain = 0
KMD1 231726Z 11007KT 20/17 A3002 RMK A01 T01990172  RH  085%=      5-min Rain = 0
KMD1 231727Z 10008KT 20/17 A3002 RMK A01 T01990172  RH  084%=      5-min Rain = 0
KMD1 231728Z 09007KT 20/17 A3002 RMK A01 T01980170  RH  084%=      5-min Rain = 0
KMD1 231729Z 08006KT 20/17 A3002 RMK A01 T01980171  RH  085%=      5-min Rain = 0
KMD1 231730Z 09008KT 20/17 A3002 RMK A01 T01980173  RH  085%=      5-min Rain = 0
KMD1 231731Z 08007KT 20/17 A3002 RMK A01 T01990172  RH  084%=      5-min Rain = 0
KMD1 231732Z 10008KT 20/17 A3002 RMK A01 T01990172  RH  084%=      5-min Rain = 0
KMD1 231733Z 10007KT 20/17 A3002 RMK A01 T01980173  RH  085%=      5-min Rain = 0
KMD1 231734Z 10008KT 20/17 A3002 RMK A01 T01980172  RH  085%=      5-min Rain = 0
KMD1 231735Z 10007KT 20/17 A3002 RMK A01 T01980172  RH  085%=      5-min Rain = 0
KMD1 231736Z 09007KT 20/17 A3002 RMK A01 T01970173  RH  086%=      5-min Rain = 0
KMD1 231737Z 08008KT 20/17 A3002 RMK A01 T01970174  RH  086%=      5-min Rain = 0
KMD1 231738Z 09008KT 20/17 A3002 RMK A01 T01980174  RH  086%=      5-min Rain = 0
KMD1 231739Z 09008KT 20/18 A3002 RMK A01 T01980175  RH  087%=      5-min Rain = 0
KMD1 231740Z 08006KT 20/17 A3002 RMK A01 T01970174  RH  086%=      5-min Rain = 0
KMD1 231741Z 08006KT 20/18 A3002 RMK A01 T01980176  RH  087%=      5-min Rain = 0
KMD1 231742Z 09007KT 20/18 A3002 RMK A01 T01990178  RH  088%=      5-min Rain = 0
KMD1 231743Z 10008KT 20/18 A3002 RMK A01 T01990178  RH  087%=      5-min Rain = 0
KMD1 231744Z 11007KT 20/17 A3002 RMK A01 T01990174  RH  085%=      5-min Rain = 0
KMD1 231745Z 10007KT 20/18 A3002 RMK A01 T01990177  RH  087%=      5-min Rain = 0
KMD1 231746Z 10007KT 20/18 A3002 RMK A01 T01990175  RH  086%=      5-min Rain = 0
KMD1 231747Z 10008KT 20/18 A3002 RMK A01 T01990175  RH  086%=      5-min Rain = 0
KMD1 231748Z 10008KT 20/17 A3002 RMK A01 T01980173  RH  085%=      5-min Rain = 0
KMD1 231749Z 11008KT 20/17 A3002 RMK A01 T01980173  RH  085%=      5-min Rain = 0
KMD1 231750Z 11007KT 20/17 A3002 RMK A01 T01980174  RH  086%=      5-min Rain = 0
KMD1 231751Z 11007KT 20/18 A3002 RMK A01 T01980175  RH  086%=      5-min Rain = 0
KMD1 231752Z 10007KT 20/17 A3002 RMK A01 T01980174  RH  086%=      5-min Rain = 0
KMD1 231753Z 11007KT 20/18 A3002 RMK A01 T01990175  RH  086%=      5-min Rain = 0
KMD1 231754Z 11006KT 20/18 A3002 RMK A01 T01980175  RH  086%=      5-min Rain = 0
KMD1 231755Z 11006KT 20/18 A3002 RMK A01 T02000177  RH  087%=      5-min Rain = 0
KMD1 231756Z 10007KT 20/18 A3002 RMK A01 T02010178  RH  087%=      5-min Rain = 0
KMD1 231757Z 11007KT 20/18 A3002 RMK A01 T02010178  RH  087%=      5-min Rain = 0
KMD1 231758Z 11008KT 20/18 A3002 RMK A01 T02020176  RH  085%=      5-min Rain = 0
KMD1 231759Z 10007KT 20/18 A3002 RMK A01 T02020178  RH  087%=      5-min Rain = 0
KMD1 231800Z 10009KT 20/18 A3002 RMK A01 T02020176  RH  085%=      5-min Rain = 0
KMD1 231801Z 11009KT 20/17 A3002 RMK A01 T02010174  RH  084%=      5-min Rain = 0
KMD1 231802Z 11009KT 20/18 A3002 RMK A01 T02010175  RH  085%=      5-min Rain = 0
KMD1 231803Z 11008KT 20/18 A3002 RMK A01 T02000175  RH  085%=      5-min Rain = 0
KMD1 231804Z 10007KT 20/18 A3002 RMK A01 T02000175  RH  085%=      5-min Rain = 0
KMD1 231805Z 09008KT 20/17 A3002 RMK A01 T02000174  RH  085%=      5-min Rain = 0
KMD1 231806Z 09009KT 20/18 A3002 RMK A01 T02000175  RH  085%=      5-min Rain = 0
KMD1 231807Z 09009KT 20/18 A3002 RMK A01 T02000175  RH  085%=      5-min Rain = 0
KMD1 231808Z 10009KT 20/18 A3002 RMK A01 T02000176  RH  086%=      5-min Rain = 0
KMD1 231809Z 11009KT 20/18 A3002 RMK A01 T02010176  RH  085%=      5-min Rain = 0
KMD1 231810Z 10008KT 20/18 A3002 RMK A01 T02010177  RH  086%=      5-min Rain = 0
KMD1 231811Z 10009KT 20/18 A3002 RMK A01 T02010177  RH  086%=      5-min Rain = 0
KMD1 231812Z 11009KT 20/18 A3002 RMK A01 T02010177  RH  086%=      5-min Rain = 0
KMD1 231813Z 11010KT 20/18 A3002 RMK A01 T02010178  RH  087%=      5-min Rain = 0
KMD1 231814Z 11009KT 20/18 A3002 RMK A01 T02000176  RH  086%=      5-min Rain = 0
KMD1 231815Z 10008KT 20/18 A3002 RMK A01 T02000178  RH  087%=      5-min Rain = 0
KMD1 231816Z 11009KT 20/18 A3002 RMK A01 T02000178  RH  087%=      5-min Rain = 0
KMD1 231817Z 11009KT 20/18 A3002 RMK A01 T02000176  RH  086%=      5-min Rain = 0
KMD1 231818Z 10010KT 20/18 A3002 RMK A01 T01990177  RH  087%=      5-min Rain = 0
KMD1 231819Z 11010KT 20/18 A3002 RMK A01 T01990176  RH  087%=      5-min Rain = 0
KMD1 231820Z 11010KT 20/18 A3002 RMK A01 T01990177  RH  087%=      5-min Rain = 0
KMD1 231821Z 11009KT 20/18 A3002 RMK A01 T01990176  RH  087%=      5-min Rain = 0
KMD1 231822Z 11008KT 20/18 A3002 RMK A01 T01990176  RH  087%=      5-min Rain = 0
KMD1 231823Z 10006KT 20/18 A3002 RMK A01 T01980177  RH  087%=      5-min Rain = 0
KMD1 231824Z 10008KT 20/18 A3002 RMK A01 T01990177  RH  087%=      5-min Rain = 0
KMD1 231825Z 10007KT 20/18 A3002 RMK A01 T01990178  RH  088%=      5-min Rain = 0
KMD1 231826Z 10009KT 20/18 A3002 RMK A01 T02000178  RH  087%=      5-min Rain = 0
KMD1 231827Z 11007KT 20/18 A3002 RMK A01 T02000178  RH  087%=      5-min Rain = 0
KMD1 231828Z 12008KT 20/18 A3002 RMK A01 T02000179  RH  088%=      5-min Rain = 0
KMD1 231829Z 11010KT 20/18 A3001 RMK A01 T02000177  RH  087%=      5-min Rain = 0
KMD1 231830Z 12009KT 20/18 A3001 RMK A01 T02000176  RH  086%=      5-min Rain = 0
KMD1 231831Z 12008KT 20/18 A3001 RMK A01 T02000176  RH  086%=      5-min Rain = 0
KMD1 231832Z 12007KT 20/18 A3001 RMK A01 T02000178  RH  087%=      5-min Rain = 0
KMD1 231833Z 12008KT 20/18 A3001 RMK A01 T02010180  RH  088%=      5-min Rain = 0
KMD1 231834Z 12008KT 20/18 A3001 RMK A01 T02010179  RH  087%=      5-min Rain = 0
KMD1 231835Z 10006KT 20/18 A3001 RMK A01 T02020182  RH  088%=      5-min Rain = 0
KMD1 231836Z 09008KT 20/18 A3001 RMK A01 T02020182  RH  088%=      5-min Rain = 0
KMD1 231837Z 10006KT 20/18 A3001 RMK A01 T02020182  RH  088%=      5-min Rain = 0
KMD1 231838Z 11007KT 20/18 A3001 RMK A01 T02020180  RH  087%=      5-min Rain = 0
KMD1 231839Z 10009KT 20/18 A3001 RMK A01 T02020181  RH  088%=      5-min Rain = 0
KMD1 231840Z 10008KT 20/18 A3001 RMK A01 T02010180  RH  088%=      5-min Rain = 0
KMD1 231841Z 10008KT 20/18 A3001 RMK A01 T02000179  RH  088%=      5-min Rain = 0
KMD1 231842Z 10008KT 20/18 A3001 RMK A01 T02000180  RH  088%=      5-min Rain = 0
KMD1 231843Z 11008KT 20/18 A3001 RMK A01 T01990179  RH  088%=      5-min Rain = 0
KMD1 231844Z 11010KT 20/18 A3001 RMK A01 T02000180  RH  089%=      5-min Rain = 0
KMD1 231845Z 11007KT 20/18 A3001 RMK A01 T01990180  RH  088%=      5-min Rain = 0
KMD1 231846Z 10009KT 20/18 A3001 RMK A01 T01990179  RH  088%=      5-min Rain = 0
KMD1 231847Z 10009KT 20/18 A3001 RMK A01 T01990178  RH  088%=      5-min Rain = 0
KMD1 231848Z 10008KT 20/18 A3001 RMK A01 T01990179  RH  088%=      5-min Rain = 0
KMD1 231849Z 10007KT 20/18 A3001 RMK A01 T01990179  RH  088%=      5-min Rain = 0
KMD1 231850Z 10008KT 20/18 A3001 RMK A01 T02000180  RH  089%=      5-min Rain = 0
KMD1 231851Z 10008KT 20/18 A3001 RMK A01 T01990179  RH  088%=      5-min Rain = 0
KMD1 231852Z 09008KT 20/18 A3001 RMK A01 T01990180  RH  088%=      5-min Rain = 0
KMD1 231853Z 10010KT 20/18 A30 RMK A01 T01990178  RH  087%=      5-min Rain = 0
KMD1 231854Z 10009KT 20/18 A30 RMK A01 T01980176  RH  087%=      5-min Rain = 0
KMD1 231855Z 10009KT 20/18 A30 RMK A01 T01980178  RH  088%=      5-min Rain = 0
KMD1 231856Z 10009KT 20/18 A30 RMK A01 T01990178  RH  088%=      5-min Rain = 0
KMD1 231857Z 10008KT 20/18 A30 RMK A01 T01990178  RH  088%=      5-min Rain = 0
KMD1 231858Z 11008KT 20/18 A30 RMK A01 T02000179  RH  088%=      5-min Rain = 0
KMD1 231859Z 11009KT 20/18 A30 RMK A01 T02010180  RH  088%=      5-min Rain = 0
KMD1 231900Z 11009KT 20/18 A30 RMK A01 T02010180  RH  088%=      5-min Rain = 0
KMD1 231901Z 12010KT 20/18 A30 RMK A01 T02010180  RH  088%=      5-min Rain = 0
KMD1 231902Z 11009KT 20/18 A30 RMK A01 T02010180  RH  088%=      5-min Rain = 0
KMD1 231903Z 11010KT 20/18 A30 RMK A01 T02010181  RH  088%=      5-min Rain = 0
KMD1 231904Z 11010KT 20/18 A30 RMK A01 T02010181  RH  088%=      5-min Rain = 0
KMD1 231905Z 11008KT 20/18 A2999 RMK A01 T02020182  RH  088%=      5-min Rain = 0
KMD1 231906Z 10010KT 20/18 A2999 RMK A01 T02030184  RH  089%=      5-min Rain = 0
KMD1 231907Z 10009KT 20/18 A2999 RMK A01 T02030180  RH  087%=      5-min Rain = 0
KMD1 231908Z 09008KT 20/18 A2999 RMK A01 T02030182  RH  088%=      5-min Rain = 0
KMD1 231909Z 08010KT 20/18 A2999 RMK A01 T02040183  RH  088%=      5-min Rain = 0
KMD1 231910Z 09008KT 21/18 A2999 RMK A01 T02050184  RH  088%=      5-min Rain = 0
KMD1 231911Z 10008KT 21/19 A2999 RMK A01 T02050187  RH  089%=      5-min Rain = 0
KMD1 231912Z 09010KT 21/19 A2999 RMK A01 T02070187  RH  088%=      5-min Rain = 0
KMD1 231913Z 10010KT 21/18 A2999 RMK A01 T02070184  RH  087%=      5-min Rain = 0
KMD1 231914Z 10009KT 21/18 A2999 RMK A01 T02060183  RH  086%=      5-min Rain = 0
KMD1 231915Z 10009KT 20/18 A2999 RMK A01 T02040182  RH  087%=      5-min Rain = 0
KMD1 231916Z 10009KT 20/18 A2999 RMK A01 T02040183  RH  088%=      5-min Rain = 0
KMD1 231917Z 10008KT 20/18 A2999 RMK A01 T02040184  RH  088%=      5-min Rain = 0
KMD1 231918Z 10007KT 20/18 A2999 RMK A01 T02040184  RH  088%=      5-min Rain = 0
KMD1 231919Z 11008KT 20/19 A2999 RMK A01 T02040185  RH  089%=      5-min Rain = 0
KMD1 231920Z 10008KT 21/18 A2999 RMK A01 T02050183  RH  087%=      5-min Rain = 0
KMD1 231921Z 09008KT 20/19 A2999 RMK A01 T02040185  RH  088%=      5-min Rain = 0
KMD1 231922Z 10007KT 21/19 A2999 RMK A01 T02050186  RH  089%=      5-min Rain = 0
KMD1 231923Z 10008KT 21/19 A2999 RMK A01 T02050185  RH  089%=      5-min Rain = 0
KMD1 231924Z 09008KT 21/18 A2999 RMK A01 T02050181  RH  087%=      5-min Rain = 0
KMD1 231925Z 09007KT 20/18 A2999 RMK A01 T02040182  RH  087%=      5-min Rain = 0
KMD1 231926Z 10007KT 20/18 A2999 RMK A01 T02040184  RH  088%=      5-min Rain = 0
KMD1 231927Z 11007KT 20/18 A2999 RMK A01 T02040184  RH  088%=      5-min Rain = 0
KMD1 231928Z 11007KT 20/18 A2999 RMK A01 T02040182  RH  087%=      5-min Rain = 0
KMD1 231929Z 09007KT 20/18 A2999 RMK A01 T02020181  RH  087%=      5-min Rain = 0
KMD1 231930Z 09007KT 20/18 A2999 RMK A01 T02020182  RH  088%=      5-min Rain = 0
KMD1 231931Z 09008KT 20/18 A2999 RMK A01 T02020182  RH  088%=      5-min Rain = 0
KMD1 231932Z 09009KT 20/18 A2999 RMK A01 T02030180  RH  087%=      5-min Rain = 0
KMD1 231933Z 08008KT 20/18 A2999 RMK A01 T02030181  RH  088%=      5-min Rain = 0
KMD1 231934Z 09008KT 20/18 A2999 RMK A01 T02030181  RH  087%=      5-min Rain = 0
KMD1 231935Z 10007KT 20/18 A2999 RMK A01 T02040183  RH  088%=      5-min Rain = 0
KMD1 231936Z 11008KT 20/18 A2999 RMK A01 T02040183  RH  088%=      5-min Rain = 0
KMD1 231937Z 10010KT 20/18 A2999 RMK A01 T02040180  RH  086%=      5-min Rain = 0
KMD1 231938Z 11009KT 20/18 A2999 RMK A01 T02030180  RH  087%=      5-min Rain = 0
KMD1 231939Z 10007KT 20/18 A2999 RMK A01 T02030180  RH  087%=      5-min Rain = 0
KMD1 231940Z 09007KT 20/18 A2999 RMK A01 T02020181  RH  087%=      5-min Rain = 0
KMD1 231941Z 10008KT 20/18 A2999 RMK A01 T02030181  RH  087%=      5-min Rain = 0
KMD1 231942Z 09009KT 20/18 A2999 RMK A01 T02030181  RH  087%=      5-min Rain = 0
KMD1 231943Z 10008KT 20/18 A2999 RMK A01 T02030178  RH  086%=      5-min Rain = 0
KMD1 231944Z 11008KT 20/18 A2999 RMK A01 T02030181  RH  087%=      5-min Rain = 0
KMD1 231945Z 11009KT 20/18 A2999 RMK A01 T02030180  RH  087%=      5-min Rain = 0
KMD1 231946Z 11009KT 20/18 A2999 RMK A01 T02020179  RH  086%=      5-min Rain = 0
KMD1 231947Z 10009KT 20/18 A2999 RMK A01 T02010177  RH  086%=      5-min Rain = 0
KMD1 231948Z 10008KT 20/18 A2999 RMK A01 T02010177  RH  086%=      5-min Rain = 0
KMD1 231949Z 09009KT 20/18 A2999 RMK A01 T02000178  RH  087%=      5-min Rain = 0
KMD1 231950Z 09009KT 20/18 A2999 RMK A01 T02000177  RH  087%=      5-min Rain = 0
KMD1 231951Z 09006KT 20/18 A2999 RMK A01 T02000179  RH  087%=      5-min Rain = 0
KMD1 231952Z 09009KT 20/18 A2999 RMK A01 T02000179  RH  087%=      5-min Rain = 0
KMD1 231953Z 11005KT 20/18 A2999 RMK A01 T02000179  RH  088%=      5-min Rain = 0
KMD1 231954Z 10006KT 20/18 A2999 RMK A01 T02000180  RH  088%=      5-min Rain = 0
KMD1 231955Z 11007KT 20/18 A2999 RMK A01 T02000180  RH  088%=      5-min Rain = 0
KMD1 231956Z 11007KT 20/18 A2999 RMK A01 T02000180  RH  088%=      5-min Rain = 0
KMD1 231957Z 11007KT 20/18 A2999 RMK A01 T02000180  RH  088%=      5-min Rain = 0
KMD1 231958Z 12006KT 20/18 A2999 RMK A01 T02000180  RH  088%=      5-min Rain = 0
KMD1 231959Z 11006KT 20/18 A2999 RMK A01 T02000181  RH  089%=      5-min Rain = 0
KMD1 232000Z 10006KT 20/18 A2999 RMK A01 T02000182  RH  089%=      5-min Rain = 0
KMD1 232001Z 10007KT 20/18 A2999 RMK A01 T02010181  RH  089%=      5-min Rain = 0
KMD1 232002Z 11009KT 20/18 A2999 RMK A01 T02010181  RH  088%=      5-min Rain = 0
KMD1 232003Z 11008KT 20/18 A2999 RMK A01 T02010180  RH  088%=      5-min Rain = 0
KMD1 232004Z 11007KT 20/18 A2999 RMK A01 T02000180  RH  088%=      5-min Rain = 0
KMD1 232005Z 11006KT 20/18 A2999 RMK A01 T02000180  RH  088%=      5-min Rain = 0
KMD1 232006Z 10007KT 20/18 A2999 RMK A01 T02000181  RH  088%=      5-min Rain = 0
KMD1 232007Z 09008KT 20/18 A2999 RMK A01 T02000179  RH  088%=      5-min Rain = 0
KMD1 232008Z 09008KT 20/18 A2999 RMK A01 T02000179  RH  087%=      5-min Rain = 0
KMD1 232009Z 12007KT 20/18 A2999 RMK A01 T02000180  RH  088%=      5-min Rain = 0
KMD1 232010Z 11008KT 20/18 A2999 RMK A01 T02000179  RH  088%=      5-min Rain = 0
KMD1 232011Z 10008KT 20/18 A2998 RMK A01 T02000179  RH  088%=      5-min Rain = 0
KMD1 232012Z 11009KT 20/18 A2998 RMK A01 T02000179  RH  088%=      5-min Rain = 0
KMD1 232013Z 11007KT 20/18 A2998 RMK A01 T01990178  RH  088%=      5-min Rain = 0
KMD1 232014Z 10008KT 20/18 A2998 RMK A01 T01990180  RH  089%=      5-min Rain = 0
KMD1 232015Z 10008KT 20/18 A2998 RMK A01 T01980179  RH  088%=      5-min Rain = 0
KMD1 232016Z 10008KT 20/18 A2998 RMK A01 T01980179  RH  089%=      5-min Rain = 0
KMD1 232017Z 12007KT 20/18 A2998 RMK A01 T01970179  RH  089%=      5-min Rain = 0
KMD1 232018Z 12006KT 20/18 A2998 RMK A01 T01970179  RH  089%=      5-min Rain = 0
KMD1 232019Z 11006KT 20/18 A2998 RMK A01 T01970179  RH  090%=      5-min Rain = 0
KMD1 232020Z 11007KT 20/18 A2999 RMK A01 T01970179  RH  090%=      5-min Rain = 0
KMD1 232021Z 11007KT 20/18 A2998 RMK A01 T01970180  RH  090%=      5-min Rain = 0
KMD1 232022Z 12008KT 20/18 A2998 RMK A01 T01970180  RH  090%=      5-min Rain = 0
KMD1 232023Z 12007KT 20/18 A2998 RMK A01 T01960180  RH  090%=      5-min Rain = 0
KMD1 232024Z 11007KT 20/18 A2998 RMK A01 T01960180  RH  090%=      5-min Rain = 0
KMD1 232025Z 12006KT 20/18 A2998 RMK A01 T01960181  RH  091%=      5-min Rain = 0
KMD1 232026Z 11007KT 20/18 A2998 RMK A01 T01960181  RH  091%=      5-min Rain = 0
KMD1 232027Z 11007KT 20/18 A2998 RMK A01 T01960182  RH  091%=      5-min Rain = 0
KMD1 232028Z 11007KT 20/18 A2998 RMK A01 T01960181  RH  091%=      5-min Rain = 0
KMD1 232029Z 10007KT 20/18 A2998 RMK A01 T01950181  RH  092%=      5-min Rain = 0
KMD1 232030Z 10007KT 20/18 A2998 RMK A01 T01950182  RH  092%=      5-min Rain = 0
KMD1 232031Z 10006KT 20/18 A2998 RMK A01 T01950183  RH  093%=      5-min Rain = 0
KMD1 232032Z 10007KT 20/18 A2998 RMK A01 T01950183  RH  093%=      5-min Rain = 0
KMD1 232033Z 10007KT 20/18 A2998 RMK A01 T01950184  RH  093%=      5-min Rain = 0
KMD1 232034Z 11007KT 20/18 A2998 RMK A01 T01950184  RH  093%=      5-min Rain = 0
KMD1 232035Z 11007KT 19/18 A2998 RMK A01 T01940184  RH  094%=      5-min Rain = 0
KMD1 232036Z 11007KT 19/18 A2998 RMK A01 T01940184  RH  094%=      5-min Rain = 0
KMD1 232037Z 11007KT 19/18 A2998 RMK A01 T01930184  RH  095%=      5-min Rain = 0
KMD1 232038Z 11006KT 19/19 A2998 RMK A01 T01930185  RH  095%=      5-min Rain = 0
KMD1 232039Z 11006KT 19/19 A2998 RMK A01 T01930186  RH  096%=      5-min Rain = 0
KMD1 232040Z 10007KT 19/19 A2998 RMK A01 T01930186  RH  096%=      5-min Rain = 0
KMD1 232041Z 11006KT 19/19 A2998 RMK A01 T01930187  RH  096%=      5-min Rain = 0
KMD1 232042Z 11006KT 19/19 A2998 RMK A01 T01930188  RH  096%=      5-min Rain = 0
KMD1 232043Z 11006KT 19/19 A2998 RMK A01 T01930187  RH  096%=      5-min Rain = 0
KMD1 232044Z 10006KT 19/19 A2998 RMK A01 T01930187  RH  096%=      5-min Rain = 0
KMD1 232045Z 11006KT 19/19 A2998 RMK A01 T01930187  RH  096%=      5-min Rain = 0
KMD1 232046Z 12006KT 19/19 A2998 RMK A01 T01920187  RH  097%=      5-min Rain = 0
KMD1 232047Z 10005KT 19/19 A2998 RMK A01 T01920187  RH  097%=      5-min Rain = 0
KMD1 232048Z 10006KT 19/19 A2998 RMK A01 T01920187  RH  097%=      5-min Rain = 0
KMD1 232049Z 10006KT 19/19 A2998 RMK A01 T01920186  RH  097%=      5-min Rain = 0
KMD1 232050Z 10005KT 19/19 A2997 RMK A01 T01910185  RH  097%=      5-min Rain = 0
KMD1 232051Z 10006KT 19/19 A2997 RMK A01 T01910186  RH  097%=      5-min Rain = 0
KMD1 232052Z 10005KT 19/19 A2997 RMK A01 T01910186  RH  097%=      5-min Rain = 0
KMD1 232053Z 10006KT 19/19 A2997 RMK A01 T01900186  RH  097%=      5-min Rain = 0
KMD1 232054Z 10006KT 19/19 A2997 RMK A01 T01910186  RH  097%=      5-min Rain = 0
KMD1 232055Z 10006KT 19/19 A2997 RMK A01 T01900186  RH  097%=      5-min Rain = 0
KMD1 232056Z 11005KT 19/19 A2997 RMK A01 T01900185  RH  097%=      5-min Rain = 0
KMD1 232057Z 11006KT 19/19 A2997 RMK A01 T01900186  RH  097%=      5-min Rain = 0
KMD1 232058Z 11007KT 19/19 A2997 RMK A01 T01900186  RH  097%=      5-min Rain = 0
KMD1 232059Z 11006KT 19/19 A2997 RMK A01 T01900186  RH  097%=      5-min Rain = 0
KMD1 232100Z 12006KT 19/19 A2997 RMK A01 T01900186  RH  098%=      5-min Rain = 0
KMD1 232101Z 12007KT 19/19 A2997 RMK A01 T01900186  RH  098%=      5-min Rain = 0
KMD1 232102Z 12006KT 19/19 A2997 RMK A01 T01900186  RH  097%=      5-min Rain = 0
KMD1 232103Z 12006KT 19/19 A2997 RMK A01 T01900186  RH  097%=      5-min Rain = 0
KMD1 232104Z 11006KT 19/19 A2997 RMK A01 T01900186  RH  097%=      5-min Rain = 0
KMD1 232105Z 11006KT 19/19 A2997 RMK A01 T01900186  RH  097%=      5-min Rain = 0
KMD1 232106Z 11006KT 19/19 A2997 RMK A01 T01900186  RH  098%=      5-min Rain = 0
KMD1 232107Z 11006KT 19/19 A2997 RMK A01 T01900186  RH  098%=      5-min Rain = 0
KMD1 232108Z 11003KT 19/19 A2997 RMK A01 T01890186  RH  098%=      5-min Rain = 0
KMD1 232109Z 10005KT 19/19 A2997 RMK A01 T01900187  RH  098%=      5-min Rain = 0
KMD1 232110Z 10006KT 19/19 A2997 RMK A01 T01900187  RH  098%=      5-min Rain = 0
KMD1 232111Z 10005KT 19/19 A2997 RMK A01 T01900186  RH  098%=      5-min Rain = 0
KMD1 232112Z 10005KT 19/19 A2997 RMK A01 T01900186  RH  098%=      5-min Rain = 0
KMD1 232113Z 09005KT 19/19 A2997 RMK A01 T01900186  RH  098%=      5-min Rain = 0
KMD1 232114Z 09005KT 19/19 A2996 RMK A01 T01900186  RH  098%=      5-min Rain = 0
KMD1 232115Z 10005KT 19/19 A2996 RMK A01 T01900187  RH  098%=      5-min Rain = 0
KMD1 232116Z 10005KT 19/19 A2996 RMK A01 T01900187  RH  098%=      5-min Rain = 0
KMD1 232117Z 10005KT 19/19 A2996 RMK A01 T01900187  RH  098%=      5-min Rain = 0
KMD1 232118Z 10006KT 19/19 A2996 RMK A01 T01900187  RH  098%=      5-min Rain = 0
KMD1 232119Z 09005KT 19/19 A2996 RMK A01 T01900187  RH  098%=      5-min Rain = 0
KMD1 232120Z 08006KT 19/19 A2996 RMK A01 T01900188  RH  098%=      5-min Rain = 0
KMD1 232121Z 09005KT 19/19 A2996 RMK A01 T01910188  RH  098%=      5-min Rain = 0
KMD1 232122Z 09005KT 19/19 A2996 RMK A01 T01910188  RH  098%=      5-min Rain = 0
KMD1 232123Z 09005KT 19/19 A2996 RMK A01 T01920189  RH  098%=      5-min Rain = 0
KMD1 232124Z 09006KT 19/19 A2996 RMK A01 T01920188  RH  098%=      5-min Rain = 0
KMD1 232125Z 09006KT 19/19 A2996 RMK A01 T01920189  RH  098%=      5-min Rain = 0
KMD1 232126Z 10008KT 19/19 A2996 RMK A01 T01920188  RH  098%=      5-min Rain = 0
KMD1 232127Z 09006KT 19/19 A2996 RMK A01 T01920188  RH  097%=      5-min Rain = 0
KMD1 232128Z 09007KT 19/19 A2996 RMK A01 T01920188  RH  098%=      5-min Rain = 0
KMD1 232129Z 09007KT 19/19 A2996 RMK A01 T01920188  RH  098%=      5-min Rain = 0
KMD1 232130Z 09007KT 19/19 A2995 RMK A01 T01920189  RH  098%=      5-min Rain = 0
KMD1 232131Z 09006KT 19/19 A2995 RMK A01 T01930189  RH  098%=      5-min Rain = 0
KMD1 232132Z 08005KT 19/19 A2995 RMK A01 T01930190  RH  098%=      5-min Rain = 0
KMD1 232133Z 08006KT 19/19 A2995 RMK A01 T01930190  RH  098%=      5-min Rain = 0
KMD1 232134Z 08006KT 19/19 A2995 RMK A01 T01930189  RH  097%=      5-min Rain = 0
KMD1 232135Z 08007KT 19/19 A2995 RMK A01 T01930189  RH  097%=      5-min Rain = 0
KMD1 232136Z 08008KT 19/19 A2995 RMK A01 T01920188  RH  097%=      5-min Rain = 0
KMD1 232137Z 09007KT 19/19 A2995 RMK A01 T01920188  RH  097%=      5-min Rain = 0
KMD1 232138Z 10007KT 19/19 A2995 RMK A01 T01930189  RH  097%=      5-min Rain = 0
KMD1 232139Z 10006KT 19/19 A2995 RMK A01 T01930189  RH  097%=      5-min Rain = 0
KMD1 232140Z 09006KT 19/19 A2995 RMK A01 T01940189  RH  097%=      5-min Rain = 0
KMD1 232141Z 09005KT 19/19 A2995 RMK A01 T01940191  RH  098%=      5-min Rain = 0
KMD1 232142Z 09008KT 20/19 A2995 RMK A01 T01960191  RH  097%=      5-min Rain = 0
KMD1 232143Z 09007KT 20/19 A2995 RMK A01 T01950190  RH  097%=      5-min Rain = 0
KMD1 232144Z 10005KT 20/19 A2995 RMK A01 T01950191  RH  098%=      5-min Rain = 0
KMD1 232145Z 09005KT 20/19 A2995 RMK A01 T01960193  RH  098%=      5-min Rain = 0
KMD1 232146Z 11007KT 20/19 A2995 RMK A01 T01970193  RH  098%=      5-min Rain = 0
KMD1 232147Z 10007KT 20/19 A2995 RMK A01 T01960191  RH  097%=      5-min Rain = 0
KMD1 232148Z 10005KT 20/19 A2995 RMK A01 T01950191  RH  097%=      5-min Rain = 0
KMD1 232149Z 10007KT 20/19 A2995 RMK A01 T01960190  RH  097%=      5-min Rain = 0
KMD1 232150Z 11006KT 20/19 A2995 RMK A01 T01960190  RH  096%=      5-min Rain = 0
KMD1 232151Z 10005KT 20/19 A2995 RMK A01 T01960191  RH  097%=      5-min Rain = 0
KMD1 232152Z 11006KT 20/19 A2995 RMK A01 T01980192  RH  097%=      5-min Rain = 0
KMD1 232153Z 10005KT 20/19 A2995 RMK A01 T01980192  RH  096%=      5-min Rain = 0
KMD1 232154Z 10005KT 20/20 A2995 RMK A01 T02020198  RH  098%=      5-min Rain = 0
KMD1 232155Z 10006KT 20/20 A2995 RMK A01 T02030197  RH  096%=      5-min Rain = 0
KMD1 232156Z 09005KT 20/20 A2995 RMK A01 T02030195  RH  095%=      5-min Rain = 0
KMD1 232157Z 11006KT 20/20 A2995 RMK A01 T02030196  RH  096%=      5-min Rain = 0
KMD1 232158Z 11005KT 21/20 A2995 RMK A01 T02050197  RH  095%=      5-min Rain = 0
KMD1 232159Z 11005KT 21/20 A2995 RMK A01 T02050195  RH  094%=      5-min Rain = 0
KMD1 232200Z 10007KT 21/20 A2995 RMK A01 T02060195  RH  093%=      5-min Rain = 0
KMD1 232201Z 11006KT 21/19 A2995 RMK A01 T02060194  RH  093%=      5-min Rain = 0
KMD1 232202Z 13005KT 21/20 A2995 RMK A01 T02070195  RH  092%=      5-min Rain = 0
KMD1 232203Z 10007KT 21/19 A2995 RMK A01 T02070194  RH  092%=      5-min Rain = 0
KMD1 232204Z 10006KT 21/19 A2994 RMK A01 T02070193  RH  091%=      5-min Rain = 0
KMD1 232205Z 11007KT 21/19 A2994 RMK A01 T02080193  RH  091%=      5-min Rain = 0
KMD1 232206Z 11006KT 21/19 A2994 RMK A01 T02070187  RH  088%=      5-min Rain = 0
KMD1 232207Z 09007KT 21/19 A2994 RMK A01 T02070193  RH  092%=      5-min Rain = 0
KMD1 232208Z 11007KT 21/19 A2994 RMK A01 T02090192  RH  090%=      5-min Rain = 0
KMD1 232209Z 10007KT 21/19 A2994 RMK A01 T02080190  RH  089%=      5-min Rain = 0
KMD1 232210Z 11007KT 21/19 A2994 RMK A01 T02080191  RH  090%=      5-min Rain = 0
KMD1 232211Z 12007KT 21/19 A2994 RMK A01 T02080192  RH  090%=      5-min Rain = 0
KMD1 232212Z 12005KT 21/19 A2994 RMK A01 T02090189  RH  089%=      5-min Rain = 0
KMD1 232213Z 12007KT 21/19 A2994 RMK A01 T02090191  RH  090%=      5-min Rain = 0
KMD1 232214Z 12007KT 21/19 A2994 RMK A01 T02090192  RH  090%=      5-min Rain = 0
KMD1 232215Z 13005KT 21/19 A2994 RMK A01 T02090188  RH  088%=      5-min Rain = 0
KMD1 232216Z 13006KT 21/19 A2994 RMK A01 T02090190  RH  089%=      5-min Rain = 0
KMD1 232217Z 14005KT 21/19 A2994 RMK A01 T02080189  RH  089%=      5-min Rain = 0
KMD1 232218Z 13004KT 21/19 A2994 RMK A01 T02080193  RH  091%=      5-min Rain = 0
KMD1 232219Z 13005KT 21/19 A2994 RMK A01 T02090192  RH  090%=      5-min Rain = 0
KMD1 232220Z 15006KT 21/19 A2994 RMK A01 T02090191  RH  089%=      5-min Rain = 0
KMD1 232221Z 15005KT 21/19 A2994 RMK A01 T02090187  RH  087%=      5-min Rain = 0
KMD1 232222Z 15005KT 21/19 A2994 RMK A01 T02080187  RH  088%=      5-min Rain = 0
KMD1 232223Z 13004KT 21/19 A2994 RMK A01 T02090190  RH  089%=      5-min Rain = 0
KMD1 232224Z 13004KT 21/19 A2994 RMK A01 T02100192  RH  089%=      5-min Rain = 0
KMD1 232225Z 12005KT 21/19 A2994 RMK A01 T02110190  RH  088%=      5-min Rain = 0
KMD1 232226Z 13005KT 21/19 A2994 RMK A01 T02110191  RH  088%=      5-min Rain = 0
KMD1 232227Z 12005KT 21/19 A2994 RMK A01 T02120191  RH  088%=      5-min Rain = 0
KMD1 232228Z 14005KT 21/19 A2994 RMK A01 T02130192  RH  088%=      5-min Rain = 0
KMD1 232229Z 13004KT 21/19 A2994 RMK A01 T02130190  RH  087%=      5-min Rain = 0
KMD1 232230Z 12004KT 21/19 A2994 RMK A01 T02130190  RH  087%=      5-min Rain = 0
KMD1 232231Z 12008KT 21/19 A2994 RMK A01 T02130191  RH  087%=      5-min Rain = 0
KMD1 232232Z 14006KT 21/19 A2994 RMK A01 T02120188  RH  086%=      5-min Rain = 0
KMD1 232233Z 13006KT 21/19 A2994 RMK A01 T02120189  RH  087%=      5-min Rain = 0
KMD1 232234Z 13006KT 21/19 A2994 RMK A01 T02120188  RH  086%=      5-min Rain = 0
KMD1 232235Z 13006KT 21/19 A2993 RMK A01 T02110187  RH  086%=      5-min Rain = 0
KMD1 232236Z 13006KT 21/19 A2993 RMK A01 T02110188  RH  087%=      5-min Rain = 0
KMD1 232237Z 15006KT 21/19 A2993 RMK A01 T02110189  RH  087%=      5-min Rain = 0
KMD1 232238Z 16007KT 21/19 A2993 RMK A01 T02110188  RH  087%=      5-min Rain = 0
KMD1 232239Z 15007KT 21/19 A2993 RMK A01 T02120186  RH  085%=      5-min Rain = 0
KMD1 232240Z 15008KT 21/19 A2994 RMK A01 T02120186  RH  085%=      5-min Rain = 0
KMD1 232241Z 16007KT 21/19 A2994 RMK A01 T02120185  RH  084%=      5-min Rain = 0
KMD1 232242Z 15006KT 21/19 A2994 RMK A01 T02120186  RH  085%=      5-min Rain = 0
KMD1 232243Z 14009KT 21/19 A2994 RMK A01 T02120187  RH  086%=      5-min Rain = 0
KMD1 232244Z 14008KT 21/19 A2994 RMK A01 T02120187  RH  086%=      5-min Rain = 0
KMD1 232245Z 14007KT 21/19 A2994 RMK A01 T02110186  RH  085%=      5-min Rain = 0
KMD1 232246Z 14006KT 21/19 A2993 RMK A01 T02110186  RH  086%=      5-min Rain = 0
KMD1 232247Z 14007KT 21/19 A2993 RMK A01 T02110187  RH  086%=      5-min Rain = 0
KMD1 232248Z 13005KT 21/19 A2993 RMK A01 T02110186  RH  086%=      5-min Rain = 0
KMD1 232249Z 12006KT 21/19 A2993 RMK A01 T02110187  RH  086%=      5-min Rain = 0
KMD1 232250Z 12008KT 21/19 A2993 RMK A01 T02110186  RH  086%=      5-min Rain = 0
KMD1 232251Z 13009KT 21/19 A2993 RMK A01 T02110187  RH  086%=      5-min Rain = 0
KMD1 232252Z 14007KT 21/19 A2993 RMK A01 T02110188  RH  086%=      5-min Rain = 0
KMD1 232253Z 14007KT 21/19 A2993 RMK A01 T02110186  RH  085%=      5-min Rain = 0
KMD1 232254Z 13007KT 21/19 A2993 RMK A01 T02110185  RH  085%=      5-min Rain = 0
KMD1 232255Z 14008KT 21/19 A2993 RMK A01 T02110186  RH  085%=      5-min Rain = 0
KMD1 232256Z 14008KT 21/19 A2993 RMK A01 T02120186  RH  085%=      5-min Rain = 0
KMD1 232257Z 14009KT 21/19 A2993 RMK A01 T02120186  RH  085%=      5-min Rain = 0
KMD1 232258Z 14008KT 21/19 A2993 RMK A01 T02120185  RH  084%=      5-min Rain = 0
KMD1 232259Z 15008KT 21/19 A2993 RMK A01 T02120185  RH  084%=      5-min Rain = 0
KMD1 232300Z 15007KT 21/19 A2993 RMK A01 T02130185  RH  084%=      5-min Rain = 0
KMD1 232301Z 15008KT 21/19 A2993 RMK A01 T02130185  RH  084%=      5-min Rain = 0
KMD1 232302Z 14007KT 21/19 A2992 RMK A01 T02130185  RH  084%=      5-min Rain = 0
KMD1 232303Z 14006KT 21/19 A2992 RMK A01 T02130186  RH  085%=      5-min Rain = 0
KMD1 232304Z 14006KT 21/19 A2992 RMK A01 T02130186  RH  085%=      5-min Rain = 0
KMD1 232305Z 14006KT 21/19 A2992 RMK A01 T02130186  RH  084%=      5-min Rain = 0
KMD1 232306Z 13005KT 21/19 A2992 RMK A01 T02140186  RH  085%=      5-min Rain = 0
KMD1 232307Z 12007KT 21/19 A2992 RMK A01 T02140189  RH  085%=      5-min Rain = 0
KMD1 232308Z 14008KT 22/19 A2992 RMK A01 T02150186  RH  084%=      5-min Rain = 0
KMD1 232309Z 15006KT 22/19 A2992 RMK A01 T02150187  RH  084%=      5-min Rain = 0
KMD1 232310Z 16006KT 22/19 A2992 RMK A01 T02160188  RH  084%=      5-min Rain = 0
KMD1 232311Z 16008KT 22/19 A2991 RMK A01 T02170186  RH  082%=      5-min Rain = 0
KMD1 232312Z 14006KT 22/19 A2991 RMK A01 T02170188  RH  083%=      5-min Rain = 0
KMD1 232313Z 15006KT 22/19 A2991 RMK A01 T02180189  RH  084%=      5-min Rain = 0
KMD1 232314Z 13005KT 22/19 A2991 RMK A01 T02180186  RH  082%=      5-min Rain = 0
KMD1 232315Z 14003KT 22/19 A2991 RMK A01 T02180186  RH  082%=      5-min Rain = 0
KMD1 232316Z 11005KT 22/19 A2991 RMK A01 T02180189  RH  083%=      5-min Rain = 0
KMD1 232317Z 12007KT 22/19 A2991 RMK A01 T02190188  RH  082%=      5-min Rain = 0
KMD1 232318Z 12005KT 22/19 A2991 RMK A01 T02190188  RH  083%=      5-min Rain = 0
KMD1 232319Z 11008KT 22/19 A2991 RMK A01 T02180188  RH  083%=      5-min Rain = 0
KMD1 232320Z 12006KT 22/19 A2991 RMK A01 T02170188  RH  083%=      5-min Rain = 0
KMD1 232321Z 11008KT 22/19 A2991 RMK A01 T02170191  RH  085%=      5-min Rain = 0
KMD1 232322Z 12009KT 22/19 A2991 RMK A01 T02160189  RH  085%=      5-min Rain = 0
KMD1 232323Z 13007KT 22/19 A2991 RMK A01 T02150187  RH  084%=      5-min Rain = 0
KMD1 232324Z 13007KT 21/19 A2991 RMK A01 T02140187  RH  084%=      5-min Rain = 0
KMD1 232325Z 12008KT 21/19 A2991 RMK A01 T02130187  RH  085%=      5-min Rain = 0
KMD1 232326Z 14009KT 21/19 A2991 RMK A01 T02130186  RH  085%=      5-min Rain = 0
KMD1 232327Z 14009KT 21/19 A2991 RMK A01 T02120186  RH  085%=      5-min Rain = 0
KMD1 232328Z 15008KT 21/19 A299 RMK A01 T02120186  RH  085%=      5-min Rain = 0
KMD1 232329Z 15009KT 21/19 A299 RMK A01 T02120185  RH  084%=      5-min Rain = 0
KMD1 232330Z 15010KT 21/18 A299 RMK A01 T02120183  RH  083%=      5-min Rain = 0
KMD1 232331Z 15009KT 21/18 A2991 RMK A01 T02130183  RH  083%=      5-min Rain = 0
KMD1 232332Z 15007KT 21/18 A2991 RMK A01 T02130184  RH  084%=      5-min Rain = 0
KMD1 232333Z 15010KT 21/19 A2991 RMK A01 T02130185  RH  084%=      5-min Rain = 0
KMD1 232334Z 15010KT 21/18 A2991 RMK A01 T02130183  RH  083%=      5-min Rain = 0
KMD1 232335Z 16009KT 21/18 A2991 RMK A01 T02140183  RH  083%=      5-min Rain = 0
KMD1 232336Z 15010KT 21/18 A2991 RMK A01 T02140183  RH  082%=      5-min Rain = 0
KMD1 232337Z 15008KT 21/18 A2991 RMK A01 T02140183  RH  082%=      5-min Rain = 0
KMD1 232338Z 16008KT 22/18 A2991 RMK A01 T02150184  RH  083%=      5-min Rain = 0
KMD1 232339Z 16008KT 22/18 A2991 RMK A01 T02150184  RH  083%=      5-min Rain = 0
KMD1 232340Z 16008KT 22/19 A2991 RMK A01 T02150186  RH  084%=      5-min Rain = 0
KMD1 232341Z 16009KT 22/19 A2991 RMK A01 T02150186  RH  084%=      5-min Rain = 0
KMD1 232342Z 16008KT 21/19 A2991 RMK A01 T02140186  RH  084%=      5-min Rain = 0
KMD1 232343Z 14005KT 21/19 A2991 RMK A01 T02140186  RH  084%=      5-min Rain = 0
KMD1 232344Z 14005KT 21/19 A2991 RMK A01 T02140188  RH  085%=      5-min Rain = 0
KMD1 232345Z 14005KT 21/19 A2991 RMK A01 T02130187  RH  085%=      5-min Rain = 0
KMD1 232346Z 14005KT 21/19 A2991 RMK A01 T02140187  RH  085%=      5-min Rain = 0
KMD1 232347Z 16005KT 22/19 A2991 RMK A01 T02150189  RH  085%=      5-min Rain = 0
KMD1 232348Z 15007KT 22/19 A2991 RMK A01 T02150188  RH  084%=      5-min Rain = 0
KMD1 232349Z 14007KT 22/19 A2991 RMK A01 T02150188  RH  084%=      5-min Rain = 0
KMD1 232350Z 14005KT 22/19 A2991 RMK A01 T02160187  RH  084%=      5-min Rain = 0
KMD1 232351Z 13006KT 22/19 A2991 RMK A01 T02160188  RH  084%=      5-min Rain = 0
KMD1 232352Z 13011KT 22/19 A2991 RMK A01 T02150187  RH  084%=      5-min Rain = 0
KMD1 232353Z 14011KT 22/19 A2991 RMK A01 T02150186  RH  084%=      5-min Rain = 0
KMD1 232354Z 15010KT 21/19 A2991 RMK A01 T02140185  RH  084%=      5-min Rain = 0
KMD1 232355Z 14008KT 21/19 A2991 RMK A01 T02130185  RH  084%=      5-min Rain = 0
KMD1 232356Z 13007KT 21/19 A2991 RMK A01 T02130186  RH  084%=      5-min Rain = 0
KMD1 232357Z 13008KT 21/19 A2991 RMK A01 T02130186  RH  085%=      5-min Rain = 0
KMD1 232358Z 14008KT 21/19 A2991 RMK A01 T02130186  RH  085%=      5-min Rain = 0
KMD1 232359Z 14007KT 21/19 A299 RMK A01 T02120185  RH  085%=      5-min Rain = 0
KMD1 240000Z 13005KT 21/19 A299 RMK A01 T02120186  RH  085%=      5-min Rain = 0
KMD1 240001Z 13006KT 21/19 A299 RMK A01 T02120187  RH  086%=      5-min Rain = 0
KMD1 240002Z 14009KT 21/19 A299 RMK A01 T02110187  RH  086%=      5-min Rain = 0
KMD1 240003Z 14007KT 21/19 A299 RMK A01 T02100186  RH  086%=      5-min Rain = 0
KMD1 240004Z 15005KT 21/19 A299 RMK A01 T02100186  RH  086%=      5-min Rain = 0
KMD1 240005Z 15005KT 21/19 A299 RMK A01 T02100186  RH  086%=      5-min Rain = 0
KMD1 240006Z 15007KT 21/19 A299 RMK A01 T02100186  RH  086%=      5-min Rain = 0
KMD1 240007Z 15006KT 21/19 A299 RMK A01 T02090185  RH  086%=      5-min Rain = 0
KMD1 240008Z 14007KT 21/19 A299 RMK A01 T02090185  RH  086%=      5-min Rain = 0
KMD1 240009Z 16009KT 21/19 A299 RMK A01 T02090185  RH  086%=      5-min Rain = 0
KMD1 240010Z 15009KT 21/19 A299 RMK A01 T02090185  RH  086%=      5-min Rain = 0
KMD1 240011Z 14008KT 21/19 A299 RMK A01 T02090185  RH  086%=      5-min Rain = 0
KMD1 240012Z 15006KT 21/19 A299 RMK A01 T02100185  RH  086%=      5-min Rain = 0
KMD1 240013Z 15007KT 21/19 A299 RMK A01 T02100186  RH  086%=      5-min Rain = 0
KMD1 240014Z 14008KT 21/19 A299 RMK A01 T02100185  RH  086%=      5-min Rain = 0
KMD1 240015Z 14007KT 21/19 A299 RMK A01 T02100185  RH  086%=      5-min Rain = 0
KMD1 240016Z 15005KT 21/19 A299 RMK A01 T02100185  RH  086%=      5-min Rain = 0
KMD1 240017Z 14005KT 21/19 A2991 RMK A01 T02100186  RH  086%=      5-min Rain = 0
KMD1 240018Z 15005KT 21/19 A2991 RMK A01 T02100186  RH  086%=      5-min Rain = 0
KMD1 240019Z 16005KT 21/19 A2991 RMK A01 T02100187  RH  087%=      5-min Rain = 0
KMD1 240020Z 16005KT 21/19 A2991 RMK A01 T02100186  RH  087%=      5-min Rain = 0
KMD1 240021Z 15005KT 21/19 A2991 RMK A01 T02100187  RH  087%=      5-min Rain = 0
KMD1 240022Z 14006KT 21/19 A2991 RMK A01 T02100187  RH  087%=      5-min Rain = 0
KMD1 240023Z 15005KT 21/19 A299 RMK A01 T02100187  RH  087%=      5-min Rain = 0
KMD1 240024Z 15004KT 21/19 A299 RMK A01 T02100187  RH  087%=      5-min Rain = 0
KMD1 240025Z 14005KT 21/19 A299 RMK A01 T02100187  RH  087%=      5-min Rain = 0
KMD1 240026Z 15005KT 21/19 A299 RMK A01 T02100187  RH  087%=      5-min Rain = 0
KMD1 240027Z 15005KT 21/19 A299 RMK A01 T02100186  RH  087%=      5-min Rain = 0
KMD1 240028Z 14006KT 21/19 A299 RMK A01 T02090186  RH  087%=      5-min Rain = 0
KMD1 240029Z 15006KT 21/19 A299 RMK A01 T02090186  RH  087%=      5-min Rain = 0
KMD1 240030Z 16005KT 21/19 A299 RMK A01 T02080186  RH  087%=      5-min Rain = 0
KMD1 240031Z 16005KT 21/19 A299 RMK A01 T02080186  RH  087%=      5-min Rain = 0
KMD1 240032Z 16004KT 21/19 A299 RMK A01 T02080186  RH  087%=      5-min Rain = 0
KMD1 240033Z 16005KT 21/19 A299 RMK A01 T02080186  RH  088%=      5-min Rain = 0
KMD1 240034Z 16005KT 21/19 A299 RMK A01 T02080187  RH  088%=      5-min Rain = 0
KMD1 240035Z 15006KT 21/19 A299 RMK A01 T02080187  RH  088%=      5-min Rain = 0
KMD1 240036Z 15004KT 21/19 A299 RMK A01 T02070186  RH  088%=      5-min Rain = 0
KMD1 240037Z 14003KT 21/19 A299 RMK A01 T02080187  RH  088%=      5-min Rain = 0
KMD1 240038Z 14005KT 21/19 A299 RMK A01 T02070186  RH  088%=      5-min Rain = 0
KMD1 240039Z 16006KT 21/19 A299 RMK A01 T02070186  RH  088%=      5-min Rain = 0
KMD1 240040Z 15006KT 21/19 A299 RMK A01 T02060186  RH  088%=      5-min Rain = 0
KMD1 240041Z 15005KT 21/19 A299 RMK A01 T02060185  RH  088%=      5-min Rain = 0
KMD1 240042Z 15005KT 21/19 A299 RMK A01 T02060186  RH  088%=      5-min Rain = 0
KMD1 240043Z 13006KT 21/19 A299 RMK A01 T02060185  RH  088%=      5-min Rain = 0
KMD1 240044Z 14005KT 21/19 A299 RMK A01 T02060185  RH  088%=      5-min Rain = 0
KMD1 240045Z 14004KT 21/19 A299 RMK A01 T02050185  RH  088%=      5-min Rain = 0
KMD1 240046Z 13005KT 21/19 A299 RMK A01 T02050185  RH  088%=      5-min Rain = 0
KMD1 240047Z 14004KT 21/19 A299 RMK A01 T02050185  RH  088%=      5-min Rain = 0
KMD1 240048Z 14005KT 21/19 A299 RMK A01 T02050185  RH  088%=      5-min Rain = 0
KMD1 240049Z 13004KT 21/19 A299 RMK A01 T02050185  RH  089%=      5-min Rain = 0
KMD1 240050Z 13004KT 20/19 A299 RMK A01 T02040185  RH  089%=      5-min Rain = 0
KMD1 240051Z 13004KT 20/18 A299 RMK A01 T02030184  RH  089%=      5-min Rain = 0
KMD1 240052Z 14004KT 20/18 A299 RMK A01 T02020184  RH  089%=      5-min Rain = 0
KMD1 240053Z 13004KT 20/18 A2989 RMK A01 T02010184  RH  090%=      5-min Rain = 0
KMD1 240054Z 13004KT 20/19 A2989 RMK A01 T02010185  RH  090%=      5-min Rain = 0
KMD1 240055Z 13004KT 20/18 A2989 RMK A01 T02010184  RH  090%=      5-min Rain = 0
KMD1 240056Z 13004KT 20/18 A2989 RMK A01 T02000184  RH  090%=      5-min Rain = 0
KMD1 240057Z 13004KT 20/18 A2989 RMK A01 T02000184  RH  091%=      5-min Rain = 0
KMD1 240058Z 13004KT 20/18 A2989 RMK A01 T02000184  RH  091%=      5-min Rain = 0
KMD1 240059Z 12003KT 20/18 A2989 RMK A01 T01990183  RH  091%=      5-min Rain = 0
KMD1 240100Z 12003KT 20/18 A2989 RMK A01 T01990184  RH  091%=      5-min Rain = 0
KMD1 240101Z 13004KT 20/18 A2989 RMK A01 T01990183  RH  091%=      5-min Rain = 0
KMD1 240102Z 11003KT 20/18 A2989 RMK A01 T01990183  RH  091%=      5-min Rain = 0
KMD1 240103Z 10003KT 20/18 A2989 RMK A01 T01980183  RH  091%=      5-min Rain = 0
KMD1 240104Z 11003KT 20/18 A2989 RMK A01 T01980183  RH  091%=      5-min Rain = 0
KMD1 240105Z 12003KT 20/18 A2989 RMK A01 T01980184  RH  092%=      5-min Rain = 0
KMD1 240106Z 11003KT 20/18 A2989 RMK A01 T01980183  RH  091%=      5-min Rain = 0
KMD1 240107Z 11003KT 20/18 A2989 RMK A01 T01980183  RH  091%=      5-min Rain = 0
KMD1 240108Z 11002KT 20/18 A2989 RMK A01 T01980183  RH  091%=      5-min Rain = 0
KMD1 240109Z 09002KT 20/18 A2989 RMK A01 T01980184  RH  091%=      5-min Rain = 0
KMD1 240110Z 10002KT 20/18 A2989 RMK A01 T01980184  RH  091%=      5-min Rain = 0
KMD1 240111Z 11002KT 20/18 A2989 RMK A01 T01980184  RH  091%=      5-min Rain = 0
KMD1 240112Z 11002KT 20/18 A2989 RMK A01 T01990183  RH  091%=      5-min Rain = 0
KMD1 240113Z 12003KT 20/18 A2989 RMK A01 T01980183  RH  091%=      5-min Rain = 0
KMD1 240114Z 12003KT 20/18 A2989 RMK A01 T01980182  RH  090%=      5-min Rain = 0
KMD1 240115Z 13003KT 20/18 A2989 RMK A01 T01970182  RH  091%=      5-min Rain = 0
KMD1 240116Z 13003KT 20/18 A2989 RMK A01 T01970182  RH  091%=      5-min Rain = 0
KMD1 240117Z 13003KT 20/18 A2989 RMK A01 T01970183  RH  092%=      5-min Rain = 0
KMD1 240118Z 13004KT 20/18 A2989 RMK A01 T01970183  RH  092%=      5-min Rain = 0
KMD1 240119Z 13004KT 20/18 A2989 RMK A01 T01960182  RH  091%=      5-min Rain = 0
KMD1 240120Z 13004KT 20/18 A2989 RMK A01 T01950181  RH  091%=      5-min Rain = 0
KMD1 240121Z 13003KT 19/18 A2989 RMK A01 T01940180  RH  092%=      5-min Rain = 0
KMD1 240122Z 13003KT 19/18 A2989 RMK A01 T01940180  RH  092%=      5-min Rain = 0
KMD1 240123Z 13004KT 19/18 A2989 RMK A01 T01930180  RH  092%=      5-min Rain = 0
KMD1 240124Z 13003KT 19/18 A2989 RMK A01 T01930181  RH  093%=      5-min Rain = 0
KMD1 240125Z 13003KT 19/18 A2989 RMK A01 T01930180  RH  092%=      5-min Rain = 0
KMD1 240126Z 13003KT 19/18 A2989 RMK A01 T01920180  RH  092%=      5-min Rain = 0
KMD1 240127Z 13003KT 19/18 A2989 RMK A01 T01920180  RH  092%=      5-min Rain = 0
KMD1 240128Z 13003KT 19/18 A2989 RMK A01 T01920180  RH  093%=      5-min Rain = 0
KMD1 240129Z 12002KT 19/18 A2989 RMK A01 T01910181  RH  093%=      5-min Rain = 0
KMD1 240130Z 12002KT 19/18 A299 RMK A01 T01920181  RH  093%=      5-min Rain = 0
KMD1 240131Z 13002KT 19/18 A299 RMK A01 T01920182  RH  094%=      5-min Rain = 0
KMD1 240132Z 13002KT 19/18 A299 RMK A01 T01930183  RH  094%=      5-min Rain = 0
KMD1 240133Z 14002KT 19/18 A299 RMK A01 T01930183  RH  094%=      5-min Rain = 0
KMD1 240134Z 14002KT 19/18 A299 RMK A01 T01930183  RH  094%=      5-min Rain = 0
KMD1 240135Z 14002KT 19/18 A299 RMK A01 T01930182  RH  094%=      5-min Rain = 0
KMD1 240136Z 14002KT 19/18 A299 RMK A01 T01930182  RH  094%=      5-min Rain = 0
KMD1 240137Z 14002KT 19/18 A299 RMK A01 T01930183  RH  094%=      5-min Rain = 0
KMD1 240138Z 15002KT 19/18 A299 RMK A01 T01920182  RH  094%=      5-min Rain = 0
KMD1 240139Z 14002KT 19/18 A299 RMK A01 T01920183  RH  094%=      5-min Rain = 0
KMD1 240140Z 15002KT 19/18 A299 RMK A01 T01920183  RH  094%=      5-min Rain = 0
KMD1 240141Z 15001KT 19/18 A299 RMK A01 T01920182  RH  094%=      5-min Rain = 0
KMD1 240142Z 16002KT 19/18 A299 RMK A01 T01920182  RH  094%=      5-min Rain = 0
KMD1 240143Z 14002KT 19/18 A299 RMK A01 T01910181  RH  094%=      5-min Rain = 0
KMD1 240144Z 16001KT 19/18 A299 RMK A01 T01910181  RH  094%=      5-min Rain = 0
KMD1 240145Z 15001KT 19/18 A2991 RMK A01 T01910181  RH  094%=      5-min Rain = 0
KMD1 240146Z 15000KT 19/18 A2991 RMK A01 T01910182  RH  095%=      5-min Rain = 0
KMD1 240147Z 23000KT 19/18 A2991 RMK A01 T01900181  RH  094%=      5-min Rain = 0
KMD1 240148Z 27000KT 19/18 A2991 RMK A01 T01910182  RH  095%=      5-min Rain = 0
KMD1 240149Z 29000KT 19/18 A2991 RMK A01 T01900181  RH  094%=      5-min Rain = 0
KMD1 240150Z 00000KT 19/18 A2991 RMK A01 T01900181  RH  094%=      5-min Rain = 0
KMD1 240151Z 32000KT 19/18 A2991 RMK A01 T01900181  RH  094%=      5-min Rain = 0
KMD1 240152Z 31000KT 19/18 A2991 RMK A01 T01890179  RH  094%=      5-min Rain = 0
KMD1 240153Z 00000KT 19/18 A2992 RMK A01 T01890179  RH  094%=      5-min Rain = 0
KMD1 240154Z 31000KT 19/18 A2992 RMK A01 T01890180  RH  095%=      5-min Rain = 0
KMD1 240155Z 30001KT 19/18 A2992 RMK A01 T01890180  RH  095%=      5-min Rain = 0
KMD1 240156Z 32001KT 19/18 A2992 RMK A01 T01890182  RH  095%=      5-min Rain = 0
KMD1 240157Z 32001KT 19/18 A2992 RMK A01 T01900182  RH  095%=      5-min Rain = 0
KMD1 240158Z 32001KT 19/18 A2992 RMK A01 T01890179  RH  094%=      5-min Rain = 0
KMD1 240159Z 33001KT 19/18 A2992 RMK A01 T01890181  RH  095%=      5-min Rain = 0
KMD1 240200Z 33001KT 19/18 A2992 RMK A01 T01900182  RH  095%=      5-min Rain = 0
KMD1 240201Z 31000KT 19/18 A2992 RMK A01 T01910183  RH  095%=      5-min Rain = 0
KMD1 240202Z 00000KT 19/18 A2992 RMK A01 T01900180  RH  094%=      5-min Rain = 0
KMD1 240203Z 03000KT 19/18 A2992 RMK A01 T01890180  RH  094%=      5-min Rain = 0
KMD1 240204Z 02001KT 19/18 A2992 RMK A01 T01890179  RH  094%=      5-min Rain = 0
KMD1 240205Z 07000KT 19/18 A2992 RMK A01 T01880177  RH  093%=      5-min Rain = 0
KMD1 240206Z 14000KT 19/18 A2991 RMK A01 T01870176  RH  093%=      5-min Rain = 0
KMD1 240207Z 16001KT 19/18 A2991 RMK A01 T01860178  RH  095%=      5-min Rain = 0
KMD1 240208Z 19000KT 19/18 A2991 RMK A01 T01880180  RH  095%=      5-min Rain = 0
KMD1 240209Z 12001KT 19/18 A2991 RMK A01 T01890180  RH  094%=      5-min Rain = 0
KMD1 240210Z 09002KT 19/18 A2991 RMK A01 T01890178  RH  094%=      5-min Rain = 0
KMD1 240211Z 08001KT 19/18 A2991 RMK A01 T01880179  RH  095%=      5-min Rain = 0
KMD1 240212Z 10001KT 19/18 A2991 RMK A01 T01890180  RH  095%=      5-min Rain = 0
KMD1 240213Z 09001KT 19/18 A2991 RMK A01 T01890181  RH  095%=      5-min Rain = 0
KMD1 240214Z 10002KT 19/18 A2991 RMK A01 T01900180  RH  094%=      5-min Rain = 0
KMD1 240215Z 05002KT 19/18 A2991 RMK A01 T01890180  RH  094%=      5-min Rain = 0
KMD1 240216Z 08002KT 19/18 A2991 RMK A01 T01890179  RH  094%=      5-min Rain = 0
KMD1 240217Z 07001KT 19/18 A2992 RMK A01 T01880178  RH  094%=      5-min Rain = 0
KMD1 240218Z 07001KT 19/18 A2992 RMK A01 T01860175  RH  093%=      5-min Rain = 0
KMD1 240219Z 13001KT 19/18 A2991 RMK A01 T01850176  RH  094%=      5-min Rain = 0
KMD1 240220Z 11001KT 19/18 A2991 RMK A01 T01850177  RH  095%=      5-min Rain = 0
KMD1 240221Z 09001KT 19/18 A2991 RMK A01 T01850177  RH  095%=      5-min Rain = 0
KMD1 240222Z 11001KT 19/18 A2991 RMK A01 T01860179  RH  096%=      5-min Rain = 0
KMD1 240223Z 07000KT 19/18 A2992 RMK A01 T01860179  RH  096%=      5-min Rain = 0
KMD1 240224Z 05000KT 19/18 A2992 RMK A01 T01870179  RH  095%=      5-min Rain = 0
KMD1 240225Z 03001KT 19/18 A2992 RMK A01 T01870179  RH  095%=      5-min Rain = 0
KMD1 240226Z 03001KT 19/18 A2992 RMK A01 T01870179  RH  095%=      5-min Rain = 0
KMD1 240227Z 02002KT 19/18 A2992 RMK A01 T01870179  RH  095%=      5-min Rain = 0
KMD1 240228Z 00002KT 19/18 A2992 RMK A01 T01870180  RH  095%=      5-min Rain = 0
KMD1 240229Z 04002KT 19/18 A2992 RMK A01 T01880180  RH  095%=      5-min Rain = 0
KMD1 240230Z 03001KT 19/18 A2992 RMK A01 T01890180  RH  095%=      5-min Rain = 0
KMD1 240231Z 36002KT 19/18 A2992 RMK A01 T01890181  RH  095%=      5-min Rain = 0
KMD1 240232Z 35002KT 19/18 A2993 RMK A01 T01900181  RH  094%=      5-min Rain = 0
KMD1 240233Z 00001KT 19/18 A2993 RMK A01 T01910181  RH  094%=      5-min Rain = 0
KMD1 240234Z 01001KT 19/18 A2993 RMK A01 T01910182  RH  094%=      5-min Rain = 0
KMD1 240235Z 02001KT 19/18 A2993 RMK A01 T01910181  RH  094%=      5-min Rain = 0
KMD1 240236Z 05002KT 19/18 A2993 RMK A01 T01920182  RH  094%=      5-min Rain = 0
KMD1 240237Z 05001KT 19/18 A2993 RMK A01 T01920182  RH  094%=      5-min Rain = 0
KMD1 240238Z 01001KT 19/18 A2993 RMK A01 T01930182  RH  093%=      5-min Rain = 0
KMD1 240239Z 01002KT 19/18 A2993 RMK A01 T01930182  RH  093%=      5-min Rain = 0
KMD1 240240Z 01002KT 19/18 A2993 RMK A01 T01940182  RH  093%=      5-min Rain = 0
KMD1 240241Z 35002KT 19/18 A2993 RMK A01 T01940182  RH  093%=      5-min Rain = 0
KMD1 240242Z 00002KT 19/18 A2993 RMK A01 T01940182  RH  093%=      5-min Rain = 0
KMD1 240243Z 00002KT 19/18 A2993 RMK A01 T01940182  RH  093%=      5-min Rain = 0
KMD1 240244Z 00002KT 19/18 A2993 RMK A01 T01940183  RH  093%=      5-min Rain = 0
KMD1 240245Z 05001KT 19/18 A2993 RMK A01 T01940183  RH  093%=      5-min Rain = 0
KMD1 240246Z 11002KT 19/18 A2993 RMK A01 T01940183  RH  093%=      5-min Rain = 0
KMD1 240247Z 07003KT 19/18 A2993 RMK A01 T01940183  RH  093%=      5-min Rain = 0
KMD1 240248Z 07002KT 19/18 A2992 RMK A01 T01940183  RH  093%=      5-min Rain = 0
KMD1 240249Z 06002KT 19/18 A2992 RMK A01 T01940183  RH  093%=      5-min Rain = 0
KMD1 240250Z 08002KT 19/18 A2992 RMK A01 T01940183  RH  093%=      5-min Rain = 0
KMD1 240251Z 11003KT 19/18 A2993 RMK A01 T01940183  RH  093%=      5-min Rain = 0
KMD1 240252Z 10003KT 19/18 A2992 RMK A01 T01940183  RH  093%=      5-min Rain = 0
KMD1 240253Z 07003KT 19/18 A2992 RMK A01 T01940182  RH  093%=      5-min Rain = 0
KMD1 240254Z 08002KT 19/18 A2992 RMK A01 T01940182  RH  092%=      5-min Rain = 0
KMD1 240255Z 09003KT 19/18 A2993 RMK A01 T01940181  RH  092%=      5-min Rain = 0
KMD1 240256Z 10003KT 19/18 A2993 RMK A01 T01940181  RH  092%=      5-min Rain = 0
KMD1 240257Z 09003KT 20/18 A2993 RMK A01 T01950181  RH  092%=      5-min Rain = 0
KMD1 240258Z 10003KT 20/18 A2993 RMK A01 T01950181  RH  092%=      5-min Rain = 0
KMD1 240259Z 11004KT 20/18 A2992 RMK A01 T01950181  RH  092%=      5-min Rain = 0
KMD1 240300Z 12004KT 20/18 A2992 RMK A01 T01950181  RH  092%=      5-min Rain = 0
KMD1 240301Z 12004KT 19/18 A2992 RMK A01 T01940181  RH  092%=      5-min Rain = 0
KMD1 240302Z 12004KT 19/18 A2992 RMK A01 T01940181  RH  092%=      5-min Rain = 0
KMD1 240303Z 11004KT 19/18 A2992 RMK A01 T01930181  RH  092%=      5-min Rain = 0
KMD1 240304Z 13005KT 19/18 A2992 RMK A01 T01930180  RH  093%=      5-min Rain = 0
KMD1 240305Z 13005KT 19/18 A2992 RMK A01 T01920180  RH  093%=      5-min Rain = 0
KMD1 240306Z 11005KT 19/18 A2992 RMK A01 T01910180  RH  093%=      5-min Rain = 0
KMD1 240307Z 11004KT 19/18 A2992 RMK A01 T01910180  RH  094%=      5-min Rain = 0
KMD1 240308Z 11004KT 19/18 A2992 RMK A01 T01900180  RH  094%=      5-min Rain = 0
KMD1 240309Z 10004KT 19/18 A2992 RMK A01 T01900181  RH  094%=      5-min Rain = 0
KMD1 240310Z 10004KT 19/18 A2992 RMK A01 T01900181  RH  094%=      5-min Rain = 0
KMD1 240311Z 10003KT 19/18 A2992 RMK A01 T01900181  RH  094%=      5-min Rain = 0
KMD1 240312Z 10003KT 19/18 A2993 RMK A01 T01900181  RH  094%=      5-min Rain = 0
KMD1 240313Z 10003KT 19/18 A2993 RMK A01 T01900180  RH  094%=      5-min Rain = 0
KMD1 240314Z 09002KT 19/18 A2993 RMK A01 T01900181  RH  094%=      5-min Rain = 0
KMD1 240315Z 10003KT 19/18 A2993 RMK A01 T01900180  RH  094%=      5-min Rain = 0
KMD1 240316Z 09002KT 19/18 A2993 RMK A01 T01900181  RH  094%=      5-min Rain = 0
KMD1 240317Z 09002KT 19/18 A2993 RMK A01 T01900181  RH  094%=      5-min Rain = 0
KMD1 240318Z 09003KT 19/18 A2993 RMK A01 T01900181  RH  094%=      5-min Rain = 0
KMD1 240319Z 09002KT 19/18 A2993 RMK A01 T01910181  RH  094%=      5-min Rain = 0
KMD1 240320Z 08002KT 19/18 A2993 RMK A01 T01910181  RH  094%=      5-min Rain = 0
KMD1 240321Z 08002KT 19/18 A2993 RMK A01 T01910181  RH  094%=      5-min Rain = 0
KMD1 240322Z 08002KT 19/18 A2993 RMK A01 T01910181  RH  094%=      5-min Rain = 0
KMD1 240323Z 09002KT 19/18 A2993 RMK A01 T01910181  RH  094%=      5-min Rain = 0
KMD1 240324Z 08002KT 19/18 A2993 RMK A01 T01920181  RH  094%=      5-min Rain = 0
KMD1 240325Z 08002KT 19/18 A2993 RMK A01 T01910181  RH  094%=      5-min Rain = 0
KMD1 240326Z 08002KT 19/18 A2993 RMK A01 T01920181  RH  094%=      5-min Rain = 0
KMD1 240327Z 07002KT 19/18 A2993 RMK A01 T01910181  RH  094%=      5-min Rain = 0
KMD1 240328Z 06002KT 19/18 A2993 RMK A01 T01920181  RH  094%=      5-min Rain = 0
KMD1 240329Z 06002KT 19/18 A2993 RMK A01 T01910181  RH  094%=      5-min Rain = 0
KMD1 240330Z 06002KT 19/18 A2993 RMK A01 T01920182  RH  094%=      5-min Rain = 0
KMD1 240331Z 05002KT 19/18 A2993 RMK A01 T01910181  RH  094%=      5-min Rain = 0
KMD1 240332Z 04002KT 19/18 A2993 RMK A01 T01920182  RH  094%=      5-min Rain = 0
KMD1 240333Z 04001KT 19/18 A2993 RMK A01 T01920182  RH  094%=      5-min Rain = 0
KMD1 240334Z 04001KT 19/18 A2993 RMK A01 T01910181  RH  094%=      5-min Rain = 0
KMD1 240335Z 04001KT 19/18 A2993 RMK A01 T01910181  RH  094%=      5-min Rain = 0
KMD1 240336Z 04001KT 19/18 A2993 RMK A01 T01910181  RH  094%=      5-min Rain = 0
KMD1 240337Z 04001KT 19/18 A2993 RMK A01 T01910181  RH  094%=      5-min Rain = 0
KMD1 240338Z 04001KT 19/18 A2993 RMK A01 T01910181  RH  094%=      5-min Rain = 0
KMD1 240339Z 04001KT 19/18 A2993 RMK A01 T01920181  RH  094%=      5-min Rain = 0
KMD1 240340Z 02000KT 19/18 A2993 RMK A01 T01920181  RH  094%=      5-min Rain = 0
KMD1 240341Z 05000KT 19/18 A2993 RMK A01 T01920181  RH  093%=      5-min Rain = 0
KMD1 240342Z 06001KT 19/18 A2993 RMK A01 T01920181  RH  093%=      5-min Rain = 0
KMD1 240343Z 06001KT 19/18 A2993 RMK A01 T01920181  RH  093%=      5-min Rain = 0
KMD1 240344Z 08001KT 19/18 A2993 RMK A01 T01920181  RH  093%=      5-min Rain = 0
KMD1 240345Z 11001KT 19/18 A2993 RMK A01 T01920181  RH  093%=      5-min Rain = 0
KMD1 240346Z 12001KT 19/18 A2993 RMK A01 T01930181  RH  093%=      5-min Rain = 0
KMD1 240347Z 13001KT 19/18 A2993 RMK A01 T01920181  RH  093%=      5-min Rain = 0
KMD1 240348Z 13001KT 19/18 A2993 RMK A01 T01930181  RH  093%=      5-min Rain = 0
KMD1 240349Z 13000KT 19/18 A2993 RMK A01 T01930181  RH  093%=      5-min Rain = 0
KMD1 240350Z 00000KT 19/18 A2993 RMK A01 T01930181  RH  093%=      5-min Rain = 0
KMD1 240351Z 11000KT 19/18 A2993 RMK A01 T01930181  RH  093%=      5-min Rain = 0
KMD1 240352Z 00000KT 19/18 A2993 RMK A01 T01930181  RH  093%=      5-min Rain = 0
KMD1 240353Z 09000KT 19/18 A2993 RMK A01 T01930181  RH  093%=      5-min Rain = 0
KMD1 240354Z 09001KT 19/18 A2993 RMK A01 T01930180  RH  093%=      5-min Rain = 0
KMD1 240355Z 09001KT 19/18 A2993 RMK A01 T01930181  RH  093%=      5-min Rain = 0
KMD1 240356Z 09001KT 19/18 A2993 RMK A01 T01930181  RH  093%=      5-min Rain = 0
KMD1 240357Z 09001KT 19/18 A2993 RMK A01 T01930180  RH  093%=      5-min Rain = 0
KMD1 240358Z 09001KT 19/18 A2993 RMK A01 T01930180  RH  093%=      5-min Rain = 0
KMD1 240359Z 09002KT 19/18 A2993 RMK A01 T01930181  RH  093%=      5-min Rain = 0
KMD1 240400Z 09002KT 19/18 A2993 RMK A01 T01930180  RH  093%=      5-min Rain = 0
KMD1 240401Z 09002KT 19/18 A2993 RMK A01 T01930181  RH  093%=      5-min Rain = 0
KMD1 240402Z 07002KT 19/18 A2993 RMK A01 T01930181  RH  093%=      5-min Rain = 0
KMD1 240403Z 07003KT 19/18 A2992 RMK A01 T01930181  RH  093%=      5-min Rain = 0
KMD1 240404Z 06002KT 19/18 A2993 RMK A01 T01930182  RH  093%=      5-min Rain = 0
KMD1 240405Z 04002KT 19/18 A2993 RMK A01 T01930182  RH  093%=      5-min Rain = 0
KMD1 240406Z 03002KT 19/18 A2993 RMK A01 T01930182  RH  093%=      5-min Rain = 0
KMD1 240407Z 02002KT 19/18 A2993 RMK A01 T01930182  RH  093%=      5-min Rain = 0
KMD1 240408Z 04002KT 19/18 A2993 RMK A01 T01930182  RH  094%=      5-min Rain = 0
KMD1 240409Z 03002KT 19/18 A2993 RMK A01 T01930183  RH  094%=      5-min Rain = 0
KMD1 240410Z 04002KT 19/18 A2993 RMK A01 T01930183  RH  094%=      5-min Rain = 0
KMD1 240411Z 06002KT 19/18 A2993 RMK A01 T01930183  RH  094%=      5-min Rain = 0
KMD1 240412Z 03002KT 19/18 A2993 RMK A01 T01930183  RH  094%=      5-min Rain = 0
KMD1 240413Z 05002KT 19/18 A2993 RMK A01 T01930182  RH  094%=      5-min Rain = 0
KMD1 240414Z 07002KT 19/18 A2992 RMK A01 T01930183  RH  094%=      5-min Rain = 0
KMD1 240415Z 08002KT 19/18 A2992 RMK A01 T01930182  RH  094%=      5-min Rain = 0
KMD1 240416Z 08003KT 19/18 A2992 RMK A01 T01930182  RH  094%=      5-min Rain = 0
KMD1 240417Z 09004KT 19/18 A2992 RMK A01 T01930183  RH  094%=      5-min Rain = 0
KMD1 240418Z 10003KT 19/18 A2992 RMK A01 T01930183  RH  094%=      5-min Rain = 0
KMD1 240419Z 10004KT 19/18 A2991 RMK A01 T01930182  RH  094%=      5-min Rain = 0
KMD1 240420Z 09004KT 19/18 A2991 RMK A01 T01930182  RH  094%=      5-min Rain = 0
KMD1 240421Z 09003KT 19/18 A2991 RMK A01 T01930182  RH  094%=      5-min Rain = 0
KMD1 240422Z 10003KT 19/18 A2992 RMK A01 T01930183  RH  094%=      5-min Rain = 0
KMD1 240423Z 10003KT 19/18 A2992 RMK A01 T01930182  RH  093%=      5-min Rain = 0
KMD1 240424Z 09003KT 19/18 A2992 RMK A01 T01930182  RH  093%=      5-min Rain = 0
KMD1 240425Z 09003KT 19/18 A2992 RMK A01 T01930182  RH  093%=      5-min Rain = 0
KMD1 240426Z 09003KT 19/18 A2992 RMK A01 T01930182  RH  093%=      5-min Rain = 0
KMD1 240427Z 09003KT 19/18 A2992 RMK A01 T01930182  RH  094%=      5-min Rain = 0
KMD1 240428Z 08003KT 19/18 A2992 RMK A01 T01930182  RH  094%=      5-min Rain = 0
KMD1 240429Z 08003KT 19/18 A2992 RMK A01 T01930182  RH  094%=      5-min Rain = 0
KMD1 240430Z 09003KT 19/18 A2992 RMK A01 T01920182  RH  094%=      5-min Rain = 0
KMD1 240431Z 09003KT 19/18 A2993 RMK A01 T01920182  RH  094%=      5-min Rain = 0
KMD1 240432Z 09003KT 19/18 A2993 RMK A01 T01920182  RH  094%=      5-min Rain = 0
KMD1 240433Z 09003KT 19/18 A2993 RMK A01 T01920182  RH  094%=      5-min Rain = 0
KMD1 240434Z 09003KT 19/18 A2993 RMK A01 T01920182  RH  094%=      5-min Rain = 0
KMD1 240435Z 09003KT 19/18 A2993 RMK A01 T01920182  RH  094%=      5-min Rain = 0
KMD1 240436Z 08002KT 19/18 A2993 RMK A01 T01920182  RH  094%=      5-min Rain = 0
KMD1 240437Z 08003KT 19/18 A2993 RMK A01 T01920182  RH  094%=      5-min Rain = 0
KMD1 240438Z 08002KT 19/18 A2993 RMK A01 T01920182  RH  094%=      5-min Rain = 0
KMD1 240439Z 08003KT 19/18 A2993 RMK A01 T01920182  RH  094%=      5-min Rain = 0
KMD1 240440Z 10002KT 19/18 A2993 RMK A01 T01920182  RH  094%=      5-min Rain = 0
KMD1 240441Z 10003KT 19/18 A2993 RMK A01 T01920182  RH  094%=      5-min Rain = 0
KMD1 240442Z 10003KT 19/18 A2993 RMK A01 T01920182  RH  094%=      5-min Rain = 0
KMD1 240443Z 10003KT 19/18 A2993 RMK A01 T01920182  RH  094%=      5-min Rain = 0
KMD1 240444Z 11003KT 19/18 A2993 RMK A01 T01920182  RH  094%=      5-min Rain = 0
KMD1 240445Z 11003KT 19/18 A2992 RMK A01 T01920182  RH  094%=      5-min Rain = 0
KMD1 240446Z 12003KT 19/18 A2992 RMK A01 T01920182  RH  094%=      5-min Rain = 0
KMD1 240447Z 11002KT 19/18 A2992 RMK A01 T01920182  RH  094%=      5-min Rain = 0
KMD1 240448Z 11003KT 19/18 A2992 RMK A01 T01920182  RH  094%=      5-min Rain = 0
KMD1 240449Z 12003KT 19/18 A2993 RMK A01 T01920182  RH  094%=      5-min Rain = 0
KMD1 240450Z 11002KT 19/18 A2993 RMK A01 T01920182  RH  094%=      5-min Rain = 0
KMD1 240451Z 10002KT 19/18 A2993 RMK A01 T01920181  RH  094%=      5-min Rain = 0
KMD1 240452Z 10002KT 19/18 A2993 RMK A01 T01920182  RH  094%=      5-min Rain = 0
KMD1 240453Z 09002KT 19/18 A2993 RMK A01 T01920182  RH  094%=      5-min Rain = 0
KMD1 240454Z 09002KT 19/18 A2993 RMK A01 T01920181  RH  094%=      5-min Rain = 0
KMD1 240455Z 10002KT 19/18 A2993 RMK A01 T01920182  RH  094%=      5-min Rain = 0
KMD1 240456Z 10001KT 19/18 A2993 RMK A01 T01920182  RH  094%=      5-min Rain = 0
KMD1 240457Z 08002KT 19/18 A2993 RMK A01 T01920182  RH  094%=      5-min Rain = 0
KMD1 240458Z 07001KT 19/18 A2993 RMK A01 T01920181  RH  094%=      5-min Rain = 0
KMD1 240459Z 06001KT 19/18 A2994 RMK A01 T01920181  RH  094%=      5-min Rain = 0

Page generated in 0.1904 seconds.